[{"header": {"dx": 0.06612293990616946, "dy": 0.0552356325346848, "nx": 98, "ny": 59, "la1": 35.046912555036876, "la2": 31.78801023549047, "lo1": -121.43107172385933, "lo2": -114.95102361305473, "refTime": "2026040815", "parameterCategory": 1, "parameterNumber": 2}, "data": [3.89, 3.91, 3.49, 2.86, 2.26, 2.14, 2.16, 2.16, 1.7, 1.73, 1.13, 0.0, 0.0, -0.98, -2.3, -4.74, -5.37, -6.18, -6.7, -7.6, -8.17, -8.49, -7.15, -6.51, -5.75, -4.8, -4.15, -3.95, -3.95, -3.9, -3.47, -2.54, -1.79, -0.89, 0.89, 2.24, 3.58, 3.47, 2.97, 2.24, 2.54, 4.02, 6.14, 7.07, 9.86, 11.88, 13.51, 13.88, 13.8, 10.24, 3.2, -0.0, 0.85, 1.98, 2.68, 3.48, 4.81, 6.4, 6.7, 6.79, 6.94, 5.31, 3.58, 3.13, 3.9, 5.29, 6.51, 7.89, 9.26, 10.6, 10.6, 8.9, 8.49, 8.49, 8.49, 8.49, 9.39, 8.46, 6.51, 3.39, 1.34, 1.34, 1.34, 1.34, 0.0, 0.0, 0.45, 1.34, 2.54, 4.6, 5.82, 4.95, 4.95, 4.29, 3.35, 2.41, 0.99, 0.0, 4.05, 4.08, 3.45, 3.32, 2.89, 2.75, 2.29, 2.14, 2.32, 1.7, 1.08, 0.79, 0.0, 0.0, 0.0, -2.0, -4.29, -5.69, -6.28, -7.07, -8.8, -8.79, -7.97, -7.15, -5.75, -4.8, -4.22, -3.95, -4.47, -4.92, -4.92, -4.38, -3.47, -2.6, -0.0, 2.0, 3.58, 4.92, 4.85, 4.15, 4.34, 5.81, 7.64, 8.53, 10.43, 12.09, 13.46, 13.41, 10.9, 3.6, -0.0, 0.99, 2.53, 2.41, 2.79, 4.11, 5.46, 6.8, 6.94, 7.63, 7.42, 6.07, 4.82, 3.95, 4.57, 5.59, 6.94, 8.33, 9.24, 10.45, 10.93, 9.81, 8.94, 8.05, 7.6, 8.05, 9.83, 8.46, 6.51, 3.39, 1.34, 1.34, 1.34, 1.34, 0.0, 0.0, 0.45, 1.34, 2.54, 4.6, 5.82, 4.95, 4.95, 4.29, 3.35, 2.41, 0.99, 0.0, 4.54, 3.89, 3.91, 3.3, 3.35, 2.89, 2.75, 2.77, 2.29, 2.32, 1.7, 0.57, 0.0, 0.0, 0.87, 0.0, -1.7, -4.16, -5.24, -6.87, -7.06, -8.37, -9.2, -8.22, -7.15, -5.51, -4.6, -4.0, -4.02, -5.09, -6.02, -5.59, -4.92, -4.02, -0.0, 3.13, 4.47, 5.75, 6.28, 6.18, 6.01, 7.44, 9.49, 10.47, 11.14, 11.14, 12.13, 8.76, 1.26, -1.6, -0.0, 1.74, 1.98, 2.68, 3.35, 4.81, 5.46, 6.8, 7.35, 7.71, 7.71, 6.98, 5.75, 5.2, 5.82, 6.4, 7.63, 8.63, 9.54, 10.45, 10.93, 10.62, 9.83, 8.36, 7.71, 7.71, 10.16, 9.8, 5.86, 1.74, 0.0, 0.0, 0.0, -1.2, -1.74, -1.58, 0.0, 1.26, 3.6, 6.21, 7.06, 6.32, 5.1, 4.95, 3.63, 2.84, 1.2, 0.0, 4.54, 4.05, 4.08, 3.94, 3.49, 3.35, 2.89, 2.92, 2.75, 2.29, 1.65, 1.16, 0.0, 0.0, 0.88, 0.79, 0.0, -2.6, -4.56, -6.01, -6.44, -7.44, -9.1, -10.04, -9.36, -7.97, -5.31, -4.15, -2.97, -3.6, -5.06, -6.39, -6.44, -5.01, 0.0, 3.6, 4.8, 7.2, 7.68, 8.12, 9.22, 10.35, 10.23, 9.55, 9.42, 10.15, 7.9, 0.85, -1.66, -0.0, 0.87, 1.6, 1.8, 2.53, 4.01, 4.81, 5.46, 6.8, 7.35, 8.14, 7.89, 7.21, 5.82, 5.82, 6.44, 7.03, 8.3, 8.14, 8.8, 9.86, 10.95, 11.06, 8.94, 6.13, 5.72, 6.39, 9.36, 9.97, 6.16, 0.0, -0.76, -0.99, -0.99, -2.68, -3.48, -2.98, 0.0, 2.6, 4.81, 7.41, 7.68, 6.32, 5.59, 4.65, 3.58, 2.97, 2.97, 2.21, 4.72, 4.54, 4.05, 4.08, 3.94, 3.32, 3.35, 3.37, 2.73, 2.92, 2.26, 1.67, 0.81, 0.0, 0.0, 0.0, 0.0, 0.0, -3.11, -5.59, -7.21, -7.44, -8.15, -9.6, -9.6, -9.2, -6.79, -4.92, -2.8, -0.85, -1.84, -4.6, -6.45, -5.63, 0.0, 2.28, 3.3, 6.97, 8.99, 9.55, 10.23, 10.32, 8.66, 8.31, 9.04, 8.93, 6.82, 3.47, 1.6, 2.41, 2.68, 2.68, 2.68, 3.35, 4.43, 4.81, 5.82, 6.21, 7.35, 8.14, 7.89, 6.7, 5.46, 5.77, 6.79, 8.0, 7.76, 7.03, 7.41, 9.05, 9.84, 10.43, 8.19, 4.92, 2.53, 2.8, 5.69, 6.8, 3.2, -1.49, -2.2, -1.83, -2.53, -3.63, -4.43, -2.76, 0.79, 4.43, 6.64, 8.03, 7.06, 6.44, 5.37, 3.48, 2.4, 3.13, 4.57, 4.22, 4.51, 4.51, 4.54, 4.05, 3.91, 3.94, 3.32, 3.35, 3.56, 2.89, 2.23, 2.14, 1.55, 0.88, 0.81, 0.0, 0.0, 0.0, -0.89, -4.12, -7.78, -8.12, -9.08, -9.3, -8.37, -8.0, -6.64, -3.91, -2.66, -1.23, 0.0, 0.0, -1.67, -3.11, -0.74, 0.69, 2.31, 7.13, 10.32, 9.55, 6.35, 4.72, 5.69, 8.4, 10.93, 11.23, 10.45, 8.01, 6.2, 5.09, 4.57, 4.22, 3.84, 3.48, 4.19, 5.21, 5.43, 5.82, 7.63, 8.63, 7.89, 6.16, 5.82, 5.77, 6.79, 8.0, 7.42, 5.82, 6.18, 7.44, 8.95, 8.95, 8.43, 6.4, 3.13, 0.98, 1.83, 2.84, 2.0, -1.13, -1.84, -1.63, -2.51, -3.4, -2.54, -0.77, 0.77, 4.12, 5.76, 5.49, 5.69, 5.69, 4.11, 0.0, 0.0, 3.6, 6.16, 5.21, 4.51, 4.51, 4.51, 4.05, 3.89, 4.12, 4.16, 3.78, 3.52, 3.35, 2.89, 2.12, 2.4, 2.41, 2.84, 1.66, 0.88, 0.0, 0.0, -2.99, -5.62, -7.79, -8.46, -8.18, -6.85, -5.55, -5.55, -3.41, -3.34, -3.49, -1.23, 0.99, 2.68, 1.55, 0.0, 0.0, 0.79, 5.55, 7.96, 5.51, 3.47, 1.18, 2.42, 6.44, 10.41, 11.2, 11.62, 10.25, 7.89, 6.71, 5.81, 4.66, 4.8, 4.8, 4.8, 5.2, 5.75, 6.28, 7.42, 8.8, 8.33, 5.75, 5.43, 5.82, 5.82, 6.8, 7.35, 6.28, 5.59, 7.11, 8.45, 7.89, 7.71, 8.14, 6.21, 2.54, 0.0, 0.0, 1.26, 3.16, 0.0, 0.0, -0.78, -1.56, -0.8, 0.0, 1.52, 2.35, 3.2, 3.2, 3.79, 3.11, 0.0, -2.97, 0.0, 3.79, 5.82, 5.82, 4.54, 4.51, 4.51, 4.51, 4.05, 4.08, 4.12, 4.16, 3.97, 3.32, 2.86, 1.71, 1.84, 2.53, 4.8, 3.83, 3.07, 2.6, 1.52, 0.0, -0.72, -1.55, -3.11, -5.4, -5.48, -4.52, -4.52, -5.67, -7.68, -6.7, -4.66, -1.18, 1.23, 3.6, 3.02, 1.41, 0.74, 2.31, 4.44, 4.6, 3.68, 3.41, 2.21, 4.3, 5.5, 6.9, 7.18, 8.67, 8.4, 7.81, 5.75, 5.36, 5.09, 5.75, 5.75, 6.16, 6.7, 7.89, 8.01, 8.9, 8.01, 5.75, 4.85, 4.15, 3.58, 5.2, 7.89, 7.6, 6.21, 6.51, 7.56, 8.05, 8.45, 8.8, 7.89, 4.92, 2.97, 2.98, 4.47, 5.51, 3.72, 1.44, 0.0, 0.0, 0.0, 0.71, 0.7, 0.0, 0.0, 1.2, 0.0, -1.6, -4.57, -3.6, 0.0, 4.43, 6.18, 5.82, 4.54, 4.72, 4.51, 4.51, 4.72, 4.54, 4.57, 4.6, 4.16, 3.97, 3.49, 2.19, 1.11, 0.89, 2.67, 3.47, 3.47, 3.33, 3.33, 2.6, 1.19, 1.19, 1.66, 0.87, 0.0, -1.41, -3.6, -7.96, -10.47, -7.19, -3.47, -1.15, 0.0, 2.32, 2.34, 1.56, 1.14, 1.11, 2.4, 3.52, 3.34, 4.38, 4.38, 2.39, 2.21, 1.54, 2.28, 4.8, 6.53, 7.06, 6.8, 4.92, 5.29, 6.02, 6.7, 7.21, 7.71, 8.33, 8.46, 8.49, 7.6, 5.36, 3.13, 1.0, 0.85, 4.15, 8.49, 8.49, 6.21, 5.59, 7.11, 8.38, 10.02, 9.89, 8.19, 6.26, 5.75, 6.21, 8.05, 7.15, 3.93, 2.2, 2.26, 2.12, 2.17, 2.17, 1.52, 0.0, -0.85, -1.49, -2.68, -3.74, -4.4, -2.68, 0.98, 4.43, 5.77, 5.06, 4.54, 4.54, 4.72, 4.51, 4.51, 4.54, 4.54, 4.57, 4.6, 3.94, 3.94, 3.94, 2.86, 1.11, 0.85, 1.68, 2.7, 2.7, 1.26, 1.14, 0.0, 0.0, 2.2, 2.8, 2.4, -0.0, -3.72, -6.69, -8.94, -5.55, 0.0, 0.0, 0.0, 0.0, 0.0, 0.0, 2.21, 2.29, 1.6, 1.4, 1.63, 3.11, 3.11, 0.95, -0.0, 1.0, 1.65, 1.63, 3.29, 4.0, 4.11, 4.38, 5.75, 6.28, 7.21, 7.35, 7.71, 8.01, 8.01, 8.05, 7.6, 5.75, 3.58, -0.0, 0.99, 4.57, 8.49, 8.49, 6.71, 5.59, 7.21, 9.4, 10.6, 9.89, 8.91, 8.01, 7.55, 7.42, 8.01, 8.91, 6.55, 2.3, 2.2, 3.43, 4.46, 4.93, 5.36, 4.24, 2.53, -0.0, -1.26, -2.23, -2.0, -0.88, 0.88, 3.22, 4.29, 4.29, 4.54, 4.54, 4.54, 4.51, 4.51, 4.51, 4.54, 4.57, 4.38, 4.6, 4.38, 5.02, 5.06, 3.8, 1.68, 1.62, 2.49, 2.19, 1.71, 1.09, 0.0, 0.0, 0.0, 1.0, 0.89, 1.34, -1.13, -2.4, -4.75, -2.23, 0.0, 0.0, -1.2, 0.0, 0.0, 0.0, 0.0, 0.0, -0.0, -0.0, 0.45, 0.0, 0.89, -0.0, -0.0, -0.0, 0.0, 0.0, 0.0, -0.78, 0.0, 2.97, 5.59, 6.28, 5.82, 6.16, 6.94, 7.15, 7.6, 8.01, 7.89, 6.02, 1.79, -0.0, 1.6, 5.2, 7.89, 8.9, 7.55, 6.4, 7.42, 9.34, 10.1, 9.58, 9.28, 9.74, 8.48, 7.76, 8.0, 9.49, 8.4, 4.46, 1.6, 3.49, 5.31, 6.26, 7.48, 7.01, 5.31, 4.02, 2.24, 1.0, 0.0, 0.98, 2.53, 3.22, 3.63, 2.53, 4.54, 4.54, 4.72, 4.72, 4.51, 4.51, 4.72, 5.0, 5.02, 5.02, 4.57, 5.23, 5.69, 6.35, 5.06, 3.22, 2.61, 2.77, 3.4, 2.75, 2.18, 0.98, 0.0, 0.0, 0.0, 0.45, -2.24, -1.2, -1.0, -1.58, -2.53, -2.0, -1.8, -0.87, 0.95, 0.0, -1.74, -2.97, -2.97, -2.54, -2.6, -2.24, 0.45, 3.13, 1.9, -2.0, -3.58, -2.84, -2.48, -3.49, -1.55, 0.99, 3.13, 3.6, 3.2, 3.47, 5.36, 7.11, 7.63, 7.6, 7.42, 5.2, -0.0, -0.85, 1.74, 4.84, 7.6, 8.63, 7.11, 6.21, 6.32, 8.14, 8.48, 8.14, 8.8, 10.02, 9.33, 8.05, 8.55, 9.14, 8.43, 5.75, 3.48, 2.84, 4.66, 6.22, 8.01, 8.46, 7.15, 5.81, 4.41, 3.32, 2.6, 3.2, 4.54, 4.19, 2.0, 0.0, 4.54, 4.72, 4.72, 4.72, 4.72, 4.51, 4.98, 5.2, 5.0, 5.23, 5.02, 5.23, 5.67, 6.7, 6.92, 6.15, 4.94, 4.43, 4.78, 5.08, 4.74, 3.73, 1.95, 0.0, -1.79, -2.63, -3.39, -3.43, -3.73, -3.35, -4.38, -2.54, -2.21, -0.99, -0.0, -0.0, -1.0, -1.9, -2.0, -2.68, -3.47, -2.68, 0.0, 3.07, 3.72, 0.0, -3.45, -4.47, -3.76, -2.49, -1.55, -1.52, 0.0, 0.0, 0.0, 1.55, 3.16, 5.7, 5.75, 5.46, 3.79, 1.49, -1.79, -2.0, -0.0, 2.98, 5.43, 4.81, 2.53, 2.24, 3.2, 4.57, 5.09, 5.59, 7.21, 9.24, 8.95, 8.43, 8.55, 8.93, 6.96, 6.44, 6.08, 4.95, 4.19, 6.7, 8.3, 7.47, 7.01, 7.12, 5.77, 4.24, 3.51, 4.38, 5.59, 4.85, 1.9, -0.0, 4.54, 4.72, 4.72, 4.72, 4.72, 5.2, 4.98, 5.2, 5.2, 5.64, 5.67, 5.67, 5.67, 6.58, 7.3, 7.51, 7.35, 6.7, 6.79, 6.87, 7.44, 6.98, 4.94, 1.95, -0.95, -2.68, -3.54, -4.11, -4.4, -4.6, -3.39, -3.9, -2.8, -1.26, -0.0, -0.0, -0.0, -1.34, -1.34, -2.0, -2.41, -1.63, 0.0, 3.21, 3.17, 0.0, -0.76, -3.52, -3.25, -3.25, -2.28, 0.0, 0.0, 0.0, 0.0, 0.0, 0.0, 2.53, 3.82, 0.89, -1.0, -1.6, -1.6, -1.6, 0.0, 0.0, 0.95, -0.0, -0.0, -0.0, -0.0, -0.71, -0.0, 1.34, 4.38, 5.75, 6.4, 6.44, 7.06, 7.44, 6.44, 6.73, 7.95, 5.69, 2.8, 5.43, 6.82, 5.82, 5.16, 6.22, 6.67, 6.07, 4.66, 5.09, 5.64, 4.92, 2.98, 2.0, 4.54, 4.72, 5.2, 5.2, 5.2, 5.2, 5.2, 5.4, 5.86, 5.64, 5.89, 5.67, 6.07, 6.31, 7.33, 7.9, 8.15, 7.73, 8.0, 8.0, 8.65, 9.1, 7.9, 4.94, 1.0, -1.73, -3.58, -3.98, -4.34, -4.6, -3.87, -2.63, -3.39, -2.24, 1.34, 0.89, 0.89, 0.45, -1.34, -1.58, -0.87, 0.0, 1.09, 1.02, 0.0, 0.89, 1.34, 0.0, -1.1, -3.45, -2.28, 0.0, 0.0, -2.24, 1.34, 1.79, 1.13, 0.87, 0.95, -1.79, -2.0, -1.6, -1.19, 0.0, 0.0, 0.0, -1.26, -0.0, -0.0, -0.0, -0.0, -1.72, -1.83, -1.49, 0.89, 1.79, 3.47, 3.58, 4.19, 4.19, 4.54, 5.77, 6.9, 6.94, 5.43, 3.72, 4.19, 3.47, 2.68, 4.92, 7.56, 7.28, 5.6, 4.93, 6.02, 4.47, 3.13, 3.13, 4.54, 5.2, 5.2, 5.2, 5.2, 5.2, 5.2, 5.4, 5.86, 5.86, 6.29, 6.31, 6.31, 6.31, 7.33, 7.93, 8.5, 8.45, 8.38, 8.65, 9.21, 9.38, 9.1, 7.9, 4.71, 0.54, -1.7, -2.24, -3.09, -3.87, -3.7, -2.68, -1.7, -2.4, -0.0, 0.45, 0.45, -1.34, -1.79, -1.58, -0.76, 0.0, 0.0, -1.27, -2.4, -0.0, -0.0, -0.0, 1.79, 0.0, 0.0, 0.0, 1.34, -0.0, -0.0, -0.0, 1.34, 0.0, 0.0, -2.24, -1.34, 0.89, 0.0, 0.0, 0.0, 0.0, 0.0, 1.34, 1.9, -0.0, -1.7, -1.47, -0.87, -1.26, -1.79, -1.79, -1.34, 0.89, 0.45, 0.0, 2.0, 3.22, 5.75, 6.7, 6.28, 4.85, 2.97, 2.68, 2.97, 4.47, 7.11, 5.05, 4.46, 6.36, 6.36, 4.93, 3.45, 3.45, 5.0, 5.2, 5.2, 4.98, 5.17, 5.17, 5.17, 5.62, 5.86, 5.86, 6.29, 6.29, 6.31, 6.7, 6.97, 7.95, 8.53, 8.5, 9.02, 8.94, 9.76, 9.76, 9.21, 8.43, 7.48, 4.69, 2.4, 1.2, 0.0, -0.63, -1.9, -2.23, -1.9, -2.84, -0.85, -1.0, -1.0, -1.58, -2.24, -1.79, 0.0, -1.0, -2.8, -2.6, -1.58, -1.58, -0.0, -0.0, -0.0, 1.6, -0.0, -0.0, -0.0, 1.34, 0.89, 0.89, 1.79, 1.26, 0.89, 0.89, -0.0, -0.0, 1.4, 1.4, 1.9, 1.79, 1.79, 1.34, -0.0, -1.41, -2.48, -2.54, -1.79, -2.21, -3.39, -3.47, -3.6, -3.2, -2.97, -2.68, -0.89, 1.26, 4.0, 5.05, 5.82, 5.09, 3.58, 3.13, 4.02, 6.7, 7.06, 5.43, 4.46, 6.07, 7.42, 5.09, 3.48, 3.48, 5.0, 5.2, 5.2, 5.4, 5.17, 5.62, 5.62, 5.62, 5.62, 6.29, 6.29, 6.29, 6.56, 6.7, 6.97, 7.93, 8.53, 9.42, 9.37, 9.58, 10.02, 9.92, 9.63, 8.68, 8.48, 7.74, 6.79, 5.26, 3.98, 1.79, -0.0, -1.6, -1.84, -1.61, -1.61, -2.41, -2.53, -1.9, -1.79, 1.34, 1.34, -1.34, -1.9, -2.53, -2.8, -2.24, -1.79, -0.0, -0.0, -0.0, -0.0, -0.0, -0.0, 1.34, 1.34, 1.79, 1.79, 2.24, 1.58, 1.58, 1.9, 1.9, 1.4, -0.0, -0.0, -0.0, 0.89, 1.9, 1.34, -1.58, -3.13, -2.84, -3.16, -3.16, -3.9, -3.6, -2.84, -2.53, -2.98, -3.2, -2.97, -0.95, 1.34, 3.79, 4.11, 4.43, 5.77, 4.85, 5.2, 5.82, 6.7, 5.75, 4.43, 5.69, 6.79, 4.74, 2.73, 2.73, 5.0, 5.2, 5.2, 5.4, 5.62, 5.62, 5.62, 5.62, 5.62, 6.29, 6.29, 6.29, 6.7, 6.96, 6.31, 7.63, 7.93, 8.53, 9.3, 9.63, 10.91, 11.6, 9.76, 9.3, 8.24, 9.63, 5.6, 6.64, 5.43, 1.58, -0.0, -1.16, -1.84, -2.23, -2.51, -2.84, -2.68, -1.7, -2.24, -1.79, -0.89, 1.34, -1.79, -2.68, -3.13, -2.68, -2.24, -1.58, -0.0, -0.0, -0.0, -0.0, -0.0, 1.79, 1.34, 1.79, 2.24, 1.79, 1.79, 2.24, 2.24, 1.9, -0.0, -0.0, -0.99, -0.85, 0.89, 2.6, 2.6, 1.58, 0.0, 0.0, 1.0, 1.0, 0.45, -1.26, -0.0, -0.0, -2.4, -3.6, -2.97, -0.95, 1.34, 1.74, 3.22, 4.71, 6.42, 6.88, 6.32, 4.65, 4.11, 5.82, 5.69, 4.87, 5.59, 4.95, 3.9, 3.9, 5.0, 5.2, 5.2, 5.4, 5.62, 5.62, 5.83, 6.27, 6.27, 6.27, 6.53, 6.29, 6.7, 6.96, 6.96, 6.71, 7.61, 7.61, 7.82, 8.65, 10.87, 11.08, 10.41, 8.93, 7.18, 7.02, 6.32, 4.43, 3.79, 1.61, 0.0, -0.54, -1.16, -1.61, -2.23, -2.79, -2.79, -2.4, -1.7, -1.34, -1.79, -1.2, -1.26, -1.86, -1.7, -2.68, -2.68, -1.9, -1.9, -0.0, -0.0, -0.0, -0.0, -0.0, -0.0, 1.79, 2.24, 1.34, 1.34, 1.79, 1.79, -0.0, -0.0, -1.4, -0.85, -1.0, 0.89, 2.68, 4.47, 4.85, 6.2, 8.46, 10.28, 9.8, 7.42, 5.2, 3.58, 1.74, -3.47, -3.47, -2.68, -1.26, -0.0, -0.0, 1.0, 2.3, 3.79, 4.19, 6.01, 3.72, 3.47, 4.95, 5.59, 4.0, 3.7, 4.96, 4.26, 4.26, 5.2, 5.2, 5.2, 5.86, 5.62, 5.83, 6.27, 6.27, 6.27, 6.27, 6.53, 6.53, 6.94, 6.7, 7.6, 7.33, 7.95, 7.33, 6.71, 6.97, 8.53, 9.3, 9.66, 8.17, 7.27, 6.32, 5.06, 3.84, 2.22, 0.54, 0.0, -0.42, -1.2, -1.61, -2.21, -2.21, -2.68, -2.4, -1.86, -1.86, -1.7, -1.7, -2.12, -1.7, -1.7, -2.68, -2.68, -2.8, -1.9, -1.9, -0.0, -0.0, -0.0, -0.0, 1.79, 1.79, 1.79, 1.34, 1.79, 1.34, 0.89, 1.79, -2.21, -2.8, -2.0, -1.58, -1.34, 1.34, 2.98, 4.81, 7.42, 9.33, 10.7, 9.81, 7.89, 6.39, 2.88, 0.0, -3.58, -4.02, -2.68, -1.79, -1.2, -1.74, -2.21, -2.24, -1.34, 0.95, 5.16, 5.05, 5.69, 5.89, 4.83, 2.72, 2.82, 3.8, 3.09, 3.09, 5.2, 5.2, 5.64, 5.86, 5.62, 5.83, 6.27, 6.27, 6.27, 6.27, 6.53, 6.53, 6.94, 6.94, 7.33, 7.6, 8.24, 8.24, 7.96, 7.61, 7.3, 7.86, 8.45, 7.9, 7.59, 7.81, 6.79, 4.11, 1.0, 0.0, 0.0, -0.0, -0.57, -1.0, -1.61, -2.15, -2.15, -2.0, -1.86, -1.86, -1.49, -1.49, -1.7, -1.7, -1.7, -1.79, -3.13, -2.8, -2.21, -1.9, -1.9, -0.0, -0.0, -0.0, 1.79, 1.79, 0.89, 0.89, 1.79, 1.79, 0.89, -1.26, -1.9, -2.0, -1.26, -1.26, -0.95, 0.89, -0.0, 1.8, 4.11, 5.6, 2.53, -0.0, 3.22, 4.37, 4.37, 0.85, -2.6, -4.02, -3.9, -3.13, -3.13, -3.47, -3.39, -3.13, -2.4, 0.87, 5.38, 8.67, 8.58, 7.27, 5.0, 2.15, 0.76, 2.11, 3.2, 3.2, 5.2, 5.2, 5.2, 5.86, 5.62, 5.62, 6.27, 6.5, 6.5, 6.5, 6.27, 6.94, 6.94, 6.94, 7.33, 7.96, 8.24, 8.58, 8.87, 8.56, 8.5, 8.73, 8.38, 7.55, 7.27, 7.86, 8.08, 5.59, 1.9, 0.0, 0.0, 0.45, -0.4, -0.99, -1.24, -1.9, -1.9, -1.86, -1.86, -1.49, -1.49, -1.86, -1.86, -1.86, -1.86, -1.86, -3.2, -3.2, -2.21, -1.9, -1.9, -1.58, -0.0, -0.0, 1.79, 1.34, 0.89, -0.89, 1.79, 0.0, 0.89, 0.89, -0.0, -1.26, -1.26, -1.26, -0.0, 0.45, 0.89, 1.34, 1.79, 1.79, -0.87, -0.0, 0.0, 1.47, 2.2, 0.0, -1.9, -2.8, -3.13, -3.9, -4.02, -3.47, -3.47, -2.98, -0.88, 0.83, 4.96, 7.59, 9.21, 7.22, 4.74, 2.24, 1.34, 2.41, 3.11, 3.11, 5.2, 5.2, 5.2, 5.64, 5.86, 5.62, 6.27, 6.5, 6.92, 6.92, 6.68, 6.68, 6.94, 6.94, 7.59, 7.96, 8.59, 8.87, 8.87, 9.17, 9.66, 9.59, 9.76, 8.29, 7.23, 7.27, 7.86, 6.59, 3.48, 1.24, 1.2, 0.45, -0.0, -0.6, -0.99, -1.24, -1.58, -1.86, -1.86, -1.49, -1.86, -1.58, -1.9, -2.15, -2.5, -2.68, -3.82, -2.53, -2.53, -2.53, -2.21, -1.9, -0.0, -0.0, -0.0, 1.79, -0.0, 0.45, 1.34, 0.0, 0.0, 0.89, 0.89, 1.34, -1.26, -0.0, 0.89, 1.34, 0.95, 1.26, 1.58, -2.68, -0.95, 0.89, 1.34, 0.0, 0.0, 0.89, -0.0, -1.49, -1.9, -3.13, -3.95, -3.22, -3.48, -2.4, 0.0, 0.84, 3.27, 3.47, 6.24, 3.11, 2.53, 2.24, 2.97, 3.07, 3.72, 3.72, 5.2, 5.2, 5.2, 5.64, 5.86, 5.86, 6.27, 6.5, 6.92, 6.92, 6.92, 6.92, 6.92, 7.19, 7.59, 7.96, 8.59, 8.87, 8.58, 9.17, 9.72, 10.23, 10.79, 9.76, 8.08, 7.23, 7.27, 6.64, 4.75, 2.58, 1.9, 1.2, 0.45, 0.45, -0.95, -1.26, -1.26, -1.26, -1.49, -1.49, -1.49, -1.86, -2.15, -2.21, -2.79, -3.2, -3.32, -2.68, -2.5, -2.21, -1.61, -1.6, -1.9, -0.0, -0.0, -0.0, -0.0, -0.0, 1.34, 0.0, 0.0, 0.0, -1.26, -1.79, -1.0, -0.0, -0.0, 0.45, 0.89, 2.0, 2.4, 0.8, 0.0, 0.0, -0.89, -1.34, 0.45, 0.89, -0.0, -0.85, -0.85, -1.58, -2.6, -3.22, -3.48, -2.4, -0.82, 0.0, 0.0, -1.4, -2.21, 0.0, 2.23, 4.15, 4.4, 4.46, 3.79, 3.79, 5.2, 5.2, 5.2, 5.64, 5.64, 5.86, 5.86, 6.27, 6.92, 6.92, 6.92, 6.92, 6.92, 6.92, 7.59, 8.23, 8.59, 8.59, 8.87, 9.17, 9.77, 10.3, 10.8, 10.51, 9.3, 8.08, 7.51, 6.04, 4.75, 3.49, 2.84, 2.5, 1.26, 0.45, 0.45, -0.63, -0.95, -0.95, -1.26, -1.7, -1.7, -1.49, -1.86, -2.5, -2.68, -2.68, -2.68, -2.5, -2.53, -2.79, -2.23, -2.53, -2.84, -1.6, -1.4, -1.4, -1.9, -0.0, 0.89, 1.34, 0.0, 0.0, 0.89, -1.26, -0.0, -0.0, -0.0, 0.89, -1.34, 0.0, 2.21, 2.84, 1.74, 1.2, 0.0, -1.34, -1.34, 0.45, -0.0, -0.0, -1.0, -0.8, -0.89, -2.23, -3.22, -2.68, -1.8, -0.98, -1.98, -3.49, -3.79, 0.0, 3.84, 5.09, 5.72, 5.15, 3.79, 3.79, 5.2, 5.2, 5.2, 5.64, 5.64, 5.86, 5.86, 6.27, 6.92, 7.16, 6.92, 6.92, 6.92, 6.92, 7.32, 7.96, 8.23, 8.59, 8.87, 9.19, 9.48, 9.77, 10.65, 10.8, 10.15, 8.73, 7.51, 5.71, 4.47, 3.84, 3.49, 3.79, 3.43, 2.15, 0.95, 0.0, 0.0, 0.45, -0.63, -0.63, -1.34, -1.34, -1.34, -2.0, -2.15, -2.5, -2.21, -2.21, -2.53, -2.23, -2.84, -2.58, -2.58, -2.51, -2.41, -1.98, -2.21, -0.0, -0.0, -0.0, 0.89, 0.0, 1.34, -0.0, 1.79, 0.45, 0.45, 0.89, 0.0, 0.0, 1.8, 2.95, 3.16, 2.53, 2.24, -0.0, -1.58, 0.45, 0.45, 0.89, -1.34, -0.95, -0.0, -0.89, -2.5, -3.16, -2.68, -1.8, -2.84, -3.35, -3.72, -0.7, 3.47, 4.83, 5.3, 5.06, 4.74, 4.74, 5.2, 5.2, 5.64, 5.64, 5.64, 5.86, 5.86, 6.29, 6.27, 7.57, 7.57, 6.92, 6.92, 6.92, 7.59, 7.59, 8.24, 8.24, 8.87, 9.19, 9.19, 9.77, 10.65, 10.88, 10.23, 9.37, 7.81, 6.01, 4.12, 3.49, 3.83, 3.83, 4.07, 2.84, 1.9, 1.26, 0.63, 0.45, 0.0, 0.45, -0.89, -0.89, -0.89, -0.63, -0.95, -1.58, -2.21, -2.53, -2.23, -2.23, -2.51, -2.58, -2.86, -2.86, -2.86, -2.84, -1.4, -0.0, -0.0, -0.0, 0.45, 0.45, 0.89, -0.0, 0.89, 0.89, 0.89, 0.89, 0.0, 0.0, 1.98, 3.48, 4.11, 2.68, 0.0, -1.79, -2.0, -1.34, 0.45, 0.45, 0.89, -0.45, -0.0, 0.45, 0.45, -1.9, -3.79, -4.84, -3.48, -2.95, -3.48, -1.83, 1.72, 3.47, 4.46, 4.94, 5.0, 5.0, 5.2, 5.2, 5.64, 5.64, 5.64, 5.64, 5.86, 6.29, 6.27, 6.92, 7.57, 7.57, 6.92, 7.57, 7.32, 7.59, 7.96, 7.96, 8.58, 8.87, 9.19, 10.09, 10.36, 10.65, 10.59, 9.66, 8.45, 6.32, 4.12, 3.49, 3.49, 4.12, 4.37, 3.48, 2.79, 1.9, 1.26, 0.95, 0.45, 0.0, 0.45, -0.45, -0.89, 0.89, -0.0, -0.57, -1.61, -2.23, -2.23, -2.23, -2.51, -2.58, -2.86, -3.48, -3.48, -2.84, -2.84, -0.0, -0.0, -0.0, -1.79, -1.34, 0.89, 0.89, 0.89, 0.89, 0.45, 0.45, 0.89, 0.0, 0.85, 4.22, 5.82, 5.15, 0.88, -2.97, -4.02, -2.68, 0.89, 0.89, 0.89, 0.45, -0.63, -0.0, -0.0, -0.89, -2.8, -4.84, -3.48, -2.53, -2.6, -2.68, -0.76, 1.45, 2.99, 4.37, 4.37, 4.37, 5.0, 5.0, 5.64, 5.64, 5.64, 5.64, 5.86, 6.29, 6.27, 6.92, 7.57, 7.57, 7.57, 7.57, 7.57, 7.59, 8.24, 7.96, 8.56, 8.58, 9.19, 9.8, 9.8, 10.36, 10.3, 10.01, 8.78, 6.34, 4.47, 3.49, 3.49, 4.12, 4.43, 4.11, 3.16, 2.79, 2.15, 1.86, 0.95, 0.63, 0.0, 0.0, 0.45, -0.0, -0.63, -1.26, -0.85, -1.88, -1.88, -2.23, -2.23, -2.51, -2.86, -3.16, -3.48, -3.48, -3.16, -2.23, -1.98, -2.21, -3.47, -2.68, -1.79, -1.58, 0.89, 0.89, -0.89, 1.79, 0.89, 0.0, 0.98, 3.48, 6.28, 7.89, 5.77, 0.87, -3.58, -4.47, -2.54, 0.0, 1.0, 0.0, -0.45, -1.2, -1.26, -1.49, -2.54, -1.79, -1.7, -0.89, -0.89, -1.74, -1.41, 0.0, 1.44, 2.9, 3.7, 3.7, 5.0, 5.0, 5.64, 5.64, 5.64, 5.64, 5.86, 6.29, 6.53, 6.92, 7.16, 7.57, 7.57, 7.57, 7.57, 7.57, 8.24, 8.24, 8.24, 8.87, 8.87, 9.17, 9.77, 10.09, 9.77, 9.72, 8.5, 6.64, 4.47, 3.83, 3.83, 3.83, 4.43, 4.11, 4.07, 3.43, 2.79, 2.15, 1.58, 1.26, 0.63, 0.0, 0.0, -0.0, -0.6, -1.79, -2.0, -1.24, -1.61, -1.88, -2.23, -2.51, -2.84, -3.16, -3.43, -4.0, -4.0, -4.0, -3.43, -4.57, -4.47, -3.47, -2.4, -1.58, 0.89, 0.89, 0.45, 0.0, 0.0, 3.16, 1.83, 1.83, 3.83, 7.11, 8.63, 6.44, 0.0, -3.04, -3.58, -1.0, 0.0, 1.0, -0.45, -1.34, -1.7, -1.49, -1.58, -2.6, -2.54, -1.58, -0.0, -0.6, -2.04, -1.45, 0.0, 1.47, 2.17, 2.17, 5.0, 5.0, 5.2, 5.64, 5.64, 5.64, 5.64, 6.29, 6.53, 6.92, 6.92, 7.57, 7.57, 7.57, 7.57, 7.57, 7.96, 8.24, 8.24, 8.58, 8.87, 9.17, 9.17, 9.77, 9.77, 9.46, 8.5, 6.34, 5.49, 3.84, 4.43, 4.43, 4.43, 4.11, 3.79, 3.48, 3.43, 2.79, 2.5, 1.58, 1.26, 0.63, 0.0, -0.63, -1.2, -1.79, -2.24, -1.86, -1.9, -2.21, -2.53, -2.23, -2.84, -2.84, -3.43, -4.0, -4.55, -4.8, -4.9, -4.77, -4.92, -3.47, -2.4, -0.95, 0.45, 1.34, 1.79, 1.58, 1.8, 2.48, 1.6, 0.99, 1.8, 5.64, 8.01, 6.21, 0.0, -2.54, -1.79, -1.6, 0.0, 0.0, 0.0, -0.63, -1.34, -1.7, -1.49, -1.49, -2.98, -1.49, -0.0, 0.0, -0.73, -2.2, 0.0, 0.0, 0.71, 0.71, 5.23, 5.23, 5.0, 5.64, 5.64, 5.64, 5.64, 6.29, 6.53, 6.68, 6.92, 7.57, 7.57, 7.57, 7.57, 7.57, 8.23, 7.96, 8.24, 8.58, 8.58, 9.17, 9.17, 9.48, 9.77, 9.46, 8.22, 6.35, 5.1, 5.49, 4.45, 4.45, 4.43, 3.83, 3.79, 3.49, 3.48, 3.43, 2.79, 2.21, 1.58, 0.95, 0.0, -0.45, -1.34, -1.79, -2.12, -1.86, -1.9, -2.21, -2.21, -2.53, -2.79, -3.14, -3.35, -3.72, -3.88, -4.6, -4.8, -4.44, -4.02, -2.4, -2.24, 0.89, -0.0, -0.0, -0.0, 1.26, 2.68, 1.58, 0.0, 0.0, 0.99, 3.79, 6.02, 2.97, -1.6, -2.68, -0.0, 1.34, 1.6, 0.85, 0.85, 0.0, 0.0, -0.89, -1.2, -1.26, -2.21, -1.98, -0.99, -0.0, 0.0, -1.41, -2.26, 0.0, 0.0, 0.0, 5.23, 5.23, 5.23, 5.64, 5.64, 5.64, 5.64, 6.29, 6.53, 6.68, 6.92, 7.57, 7.57, 7.57, 7.57, 7.57, 7.96, 7.96, 8.24, 8.24, 8.58, 8.58, 9.17, 9.17, 9.17, 9.13, 8.22, 6.97, 5.72, 5.1, 3.85, 3.84, 4.43, 4.43, 4.11, 3.79, 3.2, 3.48, 3.16, 2.23, 1.88, 1.24, 0.6, 0.0, -0.89, -1.34, -1.7, -1.86, -1.58, -1.9, -2.21, -2.21, -2.79, -2.79, -3.14, -3.35, -3.35, -4.11, -4.34, -3.98, -3.13, -1.79, 1.34, 1.79, -1.26, -1.58, -1.0, -0.0, 1.34, 1.34, -1.79, 0.0, 1.8, 4.16, 5.15, 2.0, -0.45, -0.0, 1.26, 3.04, 3.13, 3.32, 2.53, 2.15, 1.74, 0.0, 0.45, -0.6, -0.85, -1.6, -1.8, -0.87, -0.0, -0.71, -2.12, -1.49, -0.73, -0.73, 5.23, 5.23, 5.23, 5.67, 5.89, 5.64, 5.64, 6.29, 6.29, 6.68, 6.92, 7.57, 7.57, 7.57, 7.83, 7.96, 7.96, 7.96, 8.24, 8.24, 8.58, 8.58, 9.17, 9.46, 9.17, 8.85, 7.93, 6.69, 6.35, 5.38, 4.47, 3.84, 4.43, 4.43, 4.37, 4.11, 3.49, 3.2, 3.48, 2.86, 2.23, 1.61, 1.24, 0.6, 0.0, -0.89, -1.34, -1.7, -1.86, -1.9, -2.15, -2.5, -2.68, -3.07, -3.07, -3.35, -3.35, -3.6, -3.6, -2.91, -1.7, -2.24, -1.79, -2.24, -1.58, -2.24, -1.26, -0.95, -1.34, -1.79, -1.58, 0.0, 3.48, 6.44, 6.44, 5.09, 3.47, 3.93, 4.22, 4.85, 3.58, 3.07, 3.45, 3.16, 2.15, 0.42, 0.45, -0.0, -0.0, -0.87, -1.66, -1.66, -0.99, 0.0, -0.73, -2.18, -1.4, -1.4, 5.23, 5.23, 5.23, 5.67, 5.67, 5.89, 5.64, 6.29, 6.29, 6.68, 6.92, 7.57, 7.57, 7.57, 7.83, 8.22, 7.96, 7.96, 8.24, 8.24, 8.58, 8.58, 9.17, 8.85, 8.85, 8.85, 7.93, 6.69, 6.06, 5.44, 5.08, 4.45, 4.74, 5.01, 4.43, 4.37, 4.11, 3.49, 3.2, 2.86, 2.23, 2.23, 1.61, 1.24, 0.8, 0.0, -0.89, -1.34, -1.26, -1.86, -1.9, -2.15, -2.5, -2.68, -3.07, -3.07, -3.6, -3.35, -3.6, -3.07, -2.4, -1.6, -2.68, -2.0, -1.79, 1.34, 0.89, 0.89, 0.89, 0.89, 0.0, 0.0, 3.6, 6.94, 7.71, 7.21, 6.71, 6.07, 5.75, 4.02, 2.24, 3.13, 3.04, 2.23, 1.49, 0.71, 1.58, 1.34, -0.0, -0.99, -0.98, -1.66, -1.6, -0.0, 0.0, -0.66, -2.17, -2.17, 5.02, 5.02, 5.23, 5.23, 5.67, 5.89, 5.64, 6.29, 6.29, 6.94, 6.92, 6.92, 7.57, 7.57, 7.83, 8.22, 8.22, 7.96, 7.96, 8.24, 8.24, 8.58, 8.87, 8.56, 8.85, 8.53, 7.32, 6.69, 6.06, 5.72, 5.41, 5.08, 5.06, 5.01, 5.01, 5.01, 4.43, 4.11, 3.49, 2.86, 2.86, 2.23, 1.84, 1.98, 1.24, 1.26, 0.0, 0.45, -1.2, -1.26, -1.86, -2.4, -2.4, -2.8, -2.68, -3.07, -3.07, -3.35, -3.6, -3.07, -2.4, -1.7, -2.68, -2.24, -1.34, 1.34, -0.0, -1.26, -1.34, 0.89, 0.89, 0.89, 1.79, 6.26, 8.33, 7.63, 6.8, 6.7, 5.2, 2.6, 1.2, 0.89, 1.34, 1.34, 0.95, 0.0, 0.0, 0.0, 0.89, -0.0, -0.99, -2.0, -2.68, -1.74, -0.0, 0.0, -2.29, -2.99, 5.02, 5.02, 5.23, 5.23, 5.67, 5.67, 5.89, 6.06, 6.29, 6.94, 6.92, 6.92, 7.57, 7.57, 7.83, 8.22, 8.22, 7.96, 7.96, 7.96, 8.24, 8.58, 8.87, 8.56, 8.53, 7.93, 7.32, 6.69, 6.35, 5.72, 5.44, 5.69, 5.65, 5.65, 5.32, 5.35, 4.74, 4.12, 3.49, 3.49, 2.86, 2.86, 2.23, 1.8, 1.9, 1.9, 1.24, 0.0, -0.45, -1.2, -1.49, -1.86, -2.0, -2.4, -2.8, -2.68, -3.07, -3.07, -2.79, -2.79, -2.5, -1.58, -1.58, -1.34, -1.34, 1.79, -1.58, -1.79, -0.89, 0.89, 0.89, 1.34, 1.79, 4.85, 8.45, 7.21, 5.82, 5.69, 5.06, 3.07, 1.74, 1.0, 1.26, 0.95, 0.45, 0.45, 0.95, 0.0, 0.89, 0.89, -1.0, -1.98, -2.68, -2.98, -2.54, -2.24, -2.53, -2.29, 5.02, 5.02, 5.02, 5.23, 5.67, 5.67, 5.89, 6.06, 6.29, 6.94, 6.92, 6.92, 7.16, 7.57, 7.83, 8.22, 8.22, 8.22, 8.23, 8.24, 7.96, 8.58, 8.87, 8.56, 8.53, 8.22, 7.32, 6.35, 6.08, 5.72, 5.72, 5.71, 5.69, 5.95, 5.98, 5.65, 5.06, 4.45, 4.12, 3.49, 3.22, 2.84, 2.44, 1.8, 1.8, 1.88, 1.61, 0.71, 0.0, -0.89, -1.2, -1.7, -2.12, -2.0, -2.4, -2.15, -2.5, -2.79, -2.79, -2.79, -2.21, -1.49, -0.6, -0.0, 1.79, -1.58, -1.26, -1.34, -1.34, 0.0, 0.0, 0.0, 0.0, 3.72, 6.71, 6.71, 5.09, 5.15, 4.95, 4.43, 3.49, 2.53, 1.26, 1.6, 1.34, 2.24, 2.24, 2.68, 2.0, 1.34, 0.89, -1.58, -2.21, -2.98, -2.97, -2.68, -2.54, -2.53, 5.02, 5.02, 5.02, 5.02, 5.67, 5.67, 5.89, 6.06, 6.29, 6.53, 6.68, 6.92, 6.92, 7.57, 7.57, 7.95, 8.22, 8.22, 7.96, 8.23, 8.24, 8.24, 8.87, 8.56, 8.24, 7.6, 6.98, 6.35, 5.72, 5.72, 5.45, 5.72, 6.32, 6.32, 6.28, 5.95, 5.37, 5.06, 4.45, 3.84, 3.49, 3.49, 2.84, 2.44, 1.58, 1.66, 0.61, 0.0, 0.0, -0.45, -0.89, -1.2, -1.7, -2.12, -1.86, -2.4, -2.15, -2.21, -2.53, -2.53, -2.23, -1.88, -1.4, -0.0, -0.0, 1.79, -1.34, 1.34, 0.89, 0.0, 0.0, 0.0, 0.0, 1.6, 3.2, 5.36, 5.36, 4.6, 4.01, 3.48, 2.84, 3.2, 3.95, 4.02, 4.47, 4.47, 4.92, 4.92, 4.47, 3.47, 2.0, 0.89, -1.34, -2.4, -2.68, -2.54, -1.9, -1.9, 5.26, 5.26, 5.02, 5.02, 5.67, 5.67, 5.89, 6.06, 6.29, 6.53, 6.94, 6.92, 6.92, 7.57, 7.57, 7.55, 7.95, 8.22, 8.22, 7.96, 8.24, 7.96, 8.56, 8.56, 7.95, 7.61, 6.98, 6.35, 6.08, 5.72, 5.72, 5.72, 6.34, 6.92, 6.92, 6.32, 6.01, 5.08, 4.75, 4.12, 3.84, 3.49, 3.49, 3.22, 2.86, 1.61, 0.0, 0.0, 0.0, 0.0, -0.89, -1.34, -1.79, -1.7, -2.12, -1.86, -2.15, -2.5, -2.21, -2.53, -2.51, -2.23, -1.2, -1.9, -0.0, 1.79, 1.34, 0.89, 0.89, 0.0, 0.0, 0.0, 0.0, 0.99, 1.41, 3.16, 4.15, 2.98, 0.87, 0.76, 0.95, 3.58, 5.36, 6.26, 6.26, 7.15, 6.71, 6.26, 5.81, 4.85, 3.47, 2.0, 0.0, -1.26, -1.58, 0.0, 0.0, 0.0, 5.26, 5.26, 5.26, 5.02, 5.67, 5.67, 5.89, 6.06, 6.29, 6.53, 6.94, 6.92, 6.92, 7.57, 7.57, 7.55, 7.95, 8.22, 8.22, 7.96, 7.96, 7.96, 8.24, 8.24, 7.95, 7.61, 6.98, 6.34, 6.35, 5.72, 5.72, 5.72, 6.34, 6.64, 6.64, 6.92, 6.32, 5.69, 4.78, 4.45, 4.12, 3.84, 3.49, 3.49, 3.49, 2.23, 1.0, 0.0, 0.0, 0.0, -0.63, -0.89, -1.34, -1.34, -1.7, -1.49, -1.9, -1.9, -2.21, -2.23, -2.51, -2.51, -1.88, -2.21, 1.79, 1.34, 1.34, 0.89, 0.89, 0.0, 0.0, 0.0, 0.0, 0.98, 2.53, 2.53, 3.58, 3.47, 2.0, 1.79, 3.9, 5.44, 7.01, 7.56, 7.15, 7.15, 7.15, 6.71, 6.21, 5.75, 4.15, 1.9, 1.2, 0.0, 0.0, 0.0, 0.0, 0.0, 5.26, 5.26, 5.26, 5.26, 5.67, 5.67, 5.89, 6.06, 6.29, 6.53, 6.94, 6.92, 6.92, 7.57, 7.57, 7.55, 7.95, 8.22, 8.22, 7.96, 8.23, 7.96, 8.24, 8.24, 7.95, 7.61, 6.97, 6.98, 6.34, 6.35, 6.08, 6.35, 6.35, 6.95, 6.95, 6.64, 6.32, 5.71, 5.08, 4.47, 4.12, 3.84, 3.49, 3.49, 3.22, 3.48, 2.23, 0.54, 0.0, 0.0, 0.0, -0.63, -0.89, -1.34, -1.2, -1.26, -1.58, -1.9, -1.88, -2.23, -2.58, -2.23, -1.84, -1.24, 1.79, 1.34, 0.89, 0.45, 0.89, 0.89, -1.79, 0.0, 0.0, 0.87, 2.68, 3.22, 4.15, 5.36, 6.26, 6.28, 7.44, 8.49, 8.48, 7.92, 7.15, 5.36, 4.92, 6.71, 6.65, 5.75, 3.13, 0.0, 0.0, 0.0, 0.0, 0.0, 0.0, 0.0, 5.26, 5.26, 5.26, 5.26, 5.44, 5.67, 5.89, 6.31, 6.29, 6.29, 6.94, 6.92, 6.92, 7.16, 7.57, 7.55, 7.55, 7.95, 8.22, 8.22, 8.23, 8.24, 7.96, 7.96, 7.96, 7.61, 7.33, 6.98, 6.7, 6.35, 6.35, 6.08, 6.35, 6.67, 6.67, 6.95, 6.32, 5.71, 5.38, 5.08, 4.47, 4.12, 3.84, 3.49, 3.49, 3.49, 2.86, 1.61, 0.71, 0.0, 0.0, 0.0, -0.45, -0.89, -0.89, -1.2, -1.26, -1.24, -1.9, -2.53, -2.84, -2.51, -1.84, -0.71, -0.0, 0.89, 1.34, 0.89, -0.0, -1.58, -2.54, -1.79, -1.26, 0.0, 0.0, 1.79, 3.13, 5.36, 6.65, 6.44, 7.41, 9.6, 9.54, 7.57, 5.36, 3.58, 4.02, 5.81, 5.36, 2.68, 0.89, 0.0, 0.0, 0.0, 0.98, 0.87, 0.87, 0.87, 5.26, 5.26, 5.26, 5.26, 5.44, 5.67, 5.89, 6.31, 6.29, 6.29, 6.94, 6.68, 6.92, 7.16, 7.57, 7.31, 7.55, 7.95, 8.22, 8.22, 8.23, 8.24, 7.96, 8.24, 7.96, 7.33, 6.97, 6.97, 6.98, 6.34, 6.35, 6.35, 6.35, 6.97, 6.97, 6.67, 6.34, 6.32, 5.71, 5.38, 4.47, 3.85, 4.12, 3.84, 3.49, 3.22, 2.86, 2.23, 1.88, 1.0, 0.57, 0.0, 0.0, 0.45, 0.45, -0.63, -0.6, -1.26, -1.58, -2.53, -2.84, -2.84, -1.84, -0.65, -0.0, 1.34, 1.34, 1.34, 1.79, -2.0, -2.6, -2.68, -3.13, -3.13, -2.68, -1.34, 0.89, 4.02, 5.2, 4.43, 5.82, 8.95, 9.54, 7.28, 5.16, 4.41, 4.02, 3.58, 1.6, -2.98, -2.0, -1.79, 0.0, 0.0, 0.0, 0.0, 0.0, 0.0, 5.26, 5.26, 5.26, 5.26, 5.67, 5.67, 5.89, 6.31, 6.29, 6.29, 6.94, 6.68, 6.92, 7.16, 7.31, 7.31, 7.55, 7.55, 8.22, 8.22, 7.96, 7.96, 8.24, 7.96, 7.6, 7.33, 6.97, 6.97, 6.98, 6.34, 6.34, 6.35, 6.35, 6.69, 6.97, 6.97, 6.65, 6.34, 6.01, 5.71, 5.08, 4.47, 4.12, 3.84, 4.12, 3.49, 3.49, 2.86, 2.23, 1.61, 1.0, 0.8, 0.0, 0.45, 0.45, 0.45, -0.0, -0.6, -1.58, -2.5, -3.14, -2.84, -2.53, -1.2, -0.0, -0.0, 1.34, 1.34, 0.89, 0.89, -0.0, -2.4, -3.13, -3.58, -3.13, -2.24, 0.89, 1.9, 2.68, 3.48, 4.84, 7.63, 8.4, 6.7, 4.46, 2.23, -0.0, -0.0, -2.6, -2.53, -2.98, -2.24, -1.26, -0.85, 0.0, 0.0, 0.0, 0.0, 5.26, 5.26, 5.26, 5.26, 5.44, 5.67, 5.89, 6.31, 6.29, 6.29, 6.53, 6.68, 6.92, 7.16, 7.31, 7.31, 7.55, 7.55, 8.22, 8.22, 8.22, 7.96, 7.87, 7.59, 7.6, 6.96, 6.7, 6.33, 6.33, 6.34, 6.08, 6.35, 6.35, 6.69, 6.97, 6.97, 6.35, 6.34, 5.72, 5.71, 5.1, 5.08, 4.47, 4.12, 3.84, 3.49, 3.22, 2.86, 2.86, 2.23, 1.88, 1.24, 0.6, 0.63, 0.45, 0.45, 0.45, -0.0, -1.26, -1.9, -3.07, -3.14, -2.79, -1.88, -0.65, -1.0, -0.0, 0.89, 0.45, 0.45, 0.89, -1.26, -2.97, -2.97, -2.68, -2.0, -1.26, -0.0, 0.99, 2.84, 3.83, 5.2, 5.77, 5.77, 3.83, -0.0, -2.41, -1.58, -0.0, -0.0, -1.9, -2.4, -1.79, -1.0, -0.99, -0.87, -0.87, -0.87, 5.04, 5.04, 5.26, 5.26, 5.44, 5.67, 5.67, 5.89, 6.29, 6.29, 6.53, 6.68, 6.92, 7.16, 7.31, 7.31, 7.55, 7.55, 7.95, 8.22, 8.22, 8.24, 7.6, 7.59, 7.6, 6.96, 6.7, 6.33, 6.33, 6.34, 5.7, 5.98, 6.35, 6.35, 6.97, 6.97, 6.35, 6.34, 5.72, 5.72, 5.71, 5.1, 5.08, 4.47, 4.12, 3.47, 3.49, 3.12, 2.86, 2.48, 2.23, 1.61, 1.26, 0.89, 0.89, 0.45, 0.45, 0.45, -0.63, -1.86, -2.5, -3.07, -2.79, -2.21, -1.2, -1.0, -0.0, -0.0, 0.89, 0.89, 0.45, 0.89, -1.26, -2.4, -2.0, -2.0, -2.0, -1.0, -0.0, 1.2, 2.98, 3.22, 3.48, 5.21, 4.82, -2.41, -2.41, -0.95, 0.0, 0.95, 0.45, -0.95, -1.79, -1.26, -1.2, -0.99, -0.99, -0.99, 5.04, 5.04, 5.26, 5.26, 5.69, 5.67, 5.67, 5.89, 6.29, 6.29, 6.53, 6.92, 6.92, 7.16, 6.9, 7.31, 7.31, 7.55, 7.55, 8.22, 8.22, 8.23, 7.6, 7.59, 7.33, 6.96, 6.7, 6.33, 6.33, 6.34, 5.7, 5.98, 6.35, 6.35, 6.97, 6.67, 6.35, 6.06, 6.01, 5.72, 5.44, 5.38, 5.1, 5.08, 4.47, 4.12, 3.47, 3.49, 3.12, 2.6, 2.51, 2.21, 1.58, 1.2, 1.2, 0.89, 0.45, 0.0, -0.0, -1.2, -2.0, -2.68, -3.07, -2.5, -1.9, -0.57, -0.0, -0.0, -0.95, -0.0, 0.89, 0.89, -0.0, -0.0, -2.0, -2.0, -2.0, -2.4, -1.0, -0.0, 1.58, 2.6, 2.98, 4.85, 2.0, -1.49, -0.79, -0.0, 0.8, 0.85, 0.71, 0.45, -1.34, -1.26, -1.2, -0.99, -0.99, -0.99, 5.04, 5.04, 5.26, 5.26, 5.69, 5.67, 5.67, 5.89, 6.29, 6.29, 6.53, 6.92, 6.92, 7.16, 6.92, 6.92, 6.92, 7.57, 7.57, 7.85, 8.23, 7.96, 7.6, 7.59, 7.33, 6.96, 6.7, 6.58, 6.33, 6.34, 5.7, 5.72, 5.72, 6.08, 6.35, 6.35, 6.35, 6.06, 5.72, 5.72, 5.72, 5.44, 5.71, 5.1, 5.08, 4.47, 4.12, 3.84, 3.49, 2.86, 2.86, 2.53, 2.15, 1.49, 1.6, 1.2, 0.63, 0.45, 0.45, -0.63, -1.6, -2.4, -3.07, -2.68, -1.9, -0.57, -0.0, -0.0, -0.0, -0.0, -0.95, -1.34, -0.0, -0.0, -0.0, 0.89, -0.95, -2.0, -2.0, -0.95, -0.0, 2.0, 2.97, 5.81, 1.6, -1.49, -0.0, 0.85, 1.6, 0.76, 0.0, 0.0, 1.34, -1.26, -1.2, -0.99, -0.99, -0.99, 5.04, 5.04, 5.26, 5.26, 5.69, 5.67, 5.67, 5.89, 6.29, 6.53, 6.27, 6.92, 6.92, 6.92, 6.92, 6.94, 6.94, 6.94, 7.59, 7.59, 7.59, 8.24, 7.6, 7.33, 6.94, 6.96, 6.7, 6.58, 6.33, 6.34, 5.7, 5.72, 5.72, 6.35, 6.35, 6.35, 6.06, 5.72, 5.72, 5.45, 5.72, 5.72, 5.72, 5.71, 5.41, 5.08, 4.47, 4.12, 4.12, 3.49, 3.48, 2.84, 2.15, 1.86, 1.86, 1.26, 0.95, 0.0, 0.0, 0.45, -1.2, -1.86, -2.91, -2.91, -2.4, -1.26, -0.0, -0.0, -0.0, -0.0, -1.26, -1.79, -1.34, 0.89, -0.0, -0.0, 0.89, -1.34, -1.34, -0.89, 0.45, 1.34, 4.38, 4.02, 0.45, -2.41, -1.55, -0.0, -0.0, -0.8, -1.9, -1.58, -1.26, -1.58, -0.85, -0.99, -0.99, -0.99, 5.04, 5.04, 5.04, 5.26, 5.69, 5.67, 5.67, 6.31, 6.29, 6.53, 6.27, 6.27, 6.27, 6.94, 6.94, 6.94, 6.94, 6.94, 6.94, 7.59, 7.59, 7.96, 8.24, 7.6, 6.94, 6.96, 6.31, 6.33, 6.33, 6.34, 5.7, 5.98, 5.72, 6.35, 6.35, 6.35, 6.06, 5.72, 5.72, 5.45, 5.72, 5.72, 5.72, 6.01, 5.71, 5.41, 5.08, 4.75, 4.43, 4.11, 3.48, 3.43, 2.21, 2.15, 1.58, 1.58, 0.6, 0.63, 0.45, 0.45, -0.89, -1.7, -2.4, -2.91, -2.4, -1.6, -0.0, -0.0, -0.0, -0.0, -1.26, -1.79, -1.79, -0.89, -0.0, -0.0, 0.89, -1.0, -1.0, -1.26, 0.0, 0.89, 2.98, 2.4, 0.45, -2.21, -2.3, -2.53, -2.15, -3.58, -3.2, -1.58, -1.26, -1.0, -0.85, -0.99, -0.99, -0.99, 5.04, 5.04, 5.04, 5.26, 5.69, 5.67, 5.89, 6.06, 6.29, 6.29, 6.29, 6.29, 6.29, 6.94, 6.94, 6.94, 6.94, 6.94, 7.19, 7.32, 7.57, 8.23, 7.96, 7.6, 7.6, 6.96, 6.31, 6.33, 6.33, 6.34, 5.7, 5.98, 5.72, 6.35, 6.35, 6.35, 6.06, 5.72, 5.72, 5.45, 5.72, 5.72, 5.72, 5.72, 5.71, 5.71, 5.38, 5.06, 4.45, 4.12, 4.07, 3.48, 2.79, 2.21, 1.61, 1.24, 1.26, 0.6, 0.0, 0.45, 0.45, -0.89, -2.12, -2.63, -2.6, -1.7, -0.95, -0.0, -0.0, -0.0, -0.0, -1.26, -1.34, 0.89, -0.0, -0.0, -1.34, -1.0, -0.87, -0.99, -0.85, 0.89, 1.26, 1.0, 0.89, 1.34, -2.21, -3.07, -3.07, -3.74, -3.95, -3.2, -1.6, -1.0, -0.85, -0.99, -0.99, -0.99, 5.04, 5.04, 5.04, 5.26, 5.44, 5.67, 5.89, 5.89, 6.29, 6.31, 6.29, 6.29, 6.29, 6.94, 6.94, 6.94, 6.92, 6.92, 6.92, 7.57, 7.57, 7.96, 8.23, 7.96, 7.6, 6.96, 6.97, 6.33, 6.33, 6.34, 6.08, 5.98, 5.72, 6.35, 6.35, 6.35, 6.06, 5.72, 5.72, 5.45, 5.36, 5.72, 5.72, 5.44, 5.71, 5.41, 5.38, 5.08, 4.45, 4.43, 4.11, 3.43, 2.84, 2.23, 1.88, 1.61, 1.24, 0.8, 0.6, 0.0, 0.45, 0.45, -1.34, -2.17, -2.6, -2.12, -1.2, -0.0, -0.0, -0.0, -0.0, -0.0, -0.0, -0.0, -1.26, -1.9, -2.0, -1.26, -0.99, -1.6, -0.99, 0.0, 0.89, 1.79, 1.34, 0.89, -1.6, -3.16, -3.79, -3.22, -3.13, -3.51, -2.23, -0.85, -0.99, 0.0, 0.0, 0.0, 5.04, 5.04, 5.04, 5.26, 5.67, 5.67, 5.67, 5.67, 6.31, 6.31, 6.31, 6.29, 6.29, 6.94, 6.94, 6.68, 6.92, 6.92, 7.16, 7.57, 7.57, 7.57, 7.96, 7.96, 7.33, 7.33, 6.97, 6.97, 6.33, 6.34, 6.08, 5.98, 5.72, 6.08, 6.35, 6.35, 6.34, 5.72, 5.72, 5.45, 5.72, 5.72, 5.72, 5.44, 5.71, 5.1, 5.08, 4.78, 4.45, 4.43, 4.11, 3.48, 2.86, 2.51, 2.23, 1.88, 1.49, 1.24, 0.8, 0.95, 0.0, 0.45, -0.45, -1.79, -2.24, -2.24, -1.79, -0.89, -0.0, -0.0, -0.0, -0.0, -0.0, -0.0, -2.0, -2.68, -2.24, -1.79, -1.2, -0.99, -0.99, -1.0, 0.0, 1.34, 1.79, 0.89, -1.34, -2.53, -3.35, -2.3, -1.74, -2.68, -2.6, -1.74, -0.99, 0.0, 0.0, 0.0, 5.04, 5.04, 5.04, 5.26, 5.67, 5.67, 5.67, 5.67, 6.31, 6.31, 6.31, 6.29, 6.29, 6.53, 6.94, 6.92, 6.92, 6.9, 6.9, 7.16, 7.57, 7.57, 7.57, 8.23, 7.59, 7.6, 7.33, 6.97, 6.71, 6.34, 6.34, 5.98, 5.72, 5.72, 6.35, 6.35, 6.06, 5.72, 5.72, 5.72, 5.72, 5.72, 5.72, 5.44, 5.71, 5.1, 5.08, 4.47, 4.45, 4.12, 3.83, 3.2, 2.86, 2.58, 2.23, 1.61, 1.61, 1.9, 1.24, 1.26, 0.95, 0.63, 0.45, -0.89, -1.79, -2.24, -1.79, -0.89, 0.45, -0.0, -0.0, 0.89, -0.0, -0.0, -1.79, -3.13, -3.13, -2.24, -1.79, -1.9, -1.2, -0.85, 0.0, 1.26, 1.79, 1.34, 0.0, -2.0, -2.79, -2.3, -1.6, -2.54, -2.68, -2.97, -1.2, 0.0, 0.0, 0.0, 5.04, 5.04, 5.26, 5.26, 5.69, 5.69, 5.92, 5.92, 5.89, 6.31, 6.31, 6.29, 6.29, 6.53, 6.94, 6.92, 6.9, 6.9, 7.16, 7.16, 7.57, 7.57, 7.85, 7.59, 7.59, 7.6, 7.33, 7.61, 6.97, 6.98, 6.34, 6.08, 6.35, 6.08, 6.35, 6.35, 6.35, 6.06, 5.72, 5.72, 5.72, 5.72, 5.72, 5.71, 5.71, 5.1, 5.08, 4.47, 4.45, 3.84, 3.83, 3.49, 2.86, 2.86, 2.23, 2.23, 2.21, 1.61, 1.9, 1.58, 1.26, 1.2, 0.63, 0.45, -0.89, -1.79, -1.79, -1.34, -0.89, 0.45, 0.45, 0.89, 1.34, -0.0, -0.95, -2.68, -3.13, -2.24, -1.79, -1.58, -0.85, 0.0, 0.0, 1.2, 1.58, 1.26, 1.26, 0.45, -1.9, -2.86, -2.53, -2.97, -2.68, -2.24, -0.95, 0.0, 0.0, 0.0, 5.04, 5.04, 5.26, 5.02, 5.69, 5.69, 5.69, 5.67, 5.89, 5.89, 6.06, 6.29, 6.29, 6.53, 6.27, 6.92, 6.9, 6.9, 6.92, 6.92, 7.16, 7.57, 7.57, 7.59, 7.33, 7.6, 7.6, 7.33, 7.33, 6.97, 6.98, 6.34, 6.35, 6.35, 6.35, 6.35, 6.35, 6.35, 6.35, 5.72, 5.72, 5.72, 5.72, 5.71, 5.71, 5.1, 5.08, 4.47, 4.45, 4.12, 3.83, 3.49, 3.49, 3.15, 2.86, 2.51, 2.23, 2.21, 1.9, 1.9, 1.86, 1.26, 1.26, 0.63, 0.45, -1.34, -1.79, -1.34, -0.89, 0.45, 0.45, 0.45, 0.63, 1.58, -0.0, -2.24, -3.13, -2.68, -2.24, -1.26, 0.0, 0.0, 0.0, 0.99, 1.2, 1.58, 1.26, 1.26, 0.45, -2.24, -3.13, -3.13, -2.68, -1.79, 0.0, 0.95, 0.95, 0.95, 5.04, 5.04, 5.26, 5.02, 5.69, 5.69, 5.69, 5.67, 5.89, 5.89, 6.06, 6.29, 6.29, 6.53, 6.27, 6.92, 6.9, 6.9, 6.92, 6.92, 7.16, 7.57, 7.57, 7.59, 7.33, 7.6, 7.6, 7.33, 7.33, 6.97, 6.98, 6.34, 6.35, 6.35, 6.35, 6.35, 6.35, 6.35, 6.35, 5.72, 5.72, 5.72, 5.72, 5.71, 5.71, 5.1, 5.08, 4.47, 4.45, 4.12, 3.83, 3.49, 3.49, 3.15, 2.86, 2.51, 2.23, 2.21, 1.9, 1.9, 1.86, 1.26, 1.26, 0.63, 0.45, -1.34, -1.79, -1.34, -0.89, 0.45, 0.45, 0.45, 0.63, 1.58, -0.0, -2.24, -2.68, -2.68, -2.24, -1.26, 0.0, 0.0, 0.87, 0.87, 1.74, 1.9, 1.9, 2.0, 2.0, 0.89, 0.89, -1.79, -1.79, -1.34, 0.0, 1.26, 1.26, 1.26]}, {"header": {"dx": 0.06612293990616946, "dy": 0.0552356325346848, "nx": 98, "ny": 59, "la1": 35.046912555036876, "la2": 31.78801023549047, "lo1": -121.43107172385933, "lo2": -114.95102361305473, "refTime": "2026040815", "parameterCategory": 1, "parameterNumber": 3}, "data": [-10.0, -9.51, -8.72, -8.0, -6.79, -5.88, -5.4, -5.4, -5.09, -4.6, -3.39, -2.24, -2.68, -3.9, -3.83, -4.74, -5.37, -4.42, -4.46, -3.8, -2.33, -0.0, -0.0, 1.63, 2.47, 2.4, 1.66, 0.79, 0.79, 0.98, 0.87, 0.85, -0.0, -0.0, 0.0, 0.0, 0.0, -0.87, -0.99, 0.0, 0.85, 0.0, -1.23, -4.71, -6.16, -7.13, -8.74, -9.8, -11.37, -8.66, -1.6, 2.24, 2.54, 2.98, 3.58, 3.48, 4.01, 3.2, 2.51, 2.26, 1.73, 0.76, 0.0, 0.0, 0.98, 0.88, 1.63, 1.58, 1.54, 1.63, 1.63, 0.81, 0.0, 0.0, 0.0, 0.0, 0.0, -0.71, -1.63, -1.13, 0.0, 0.0, 0.0, 0.0, -1.34, -0.89, 0.0, 0.0, -0.85, -2.76, -4.16, -5.77, -5.77, -5.15, -4.19, -3.22, -2.97, -2.24, -10.42, -9.92, -9.21, -8.3, -7.51, -6.6, -6.3, -5.88, -5.81, -5.09, -4.34, -3.95, -3.13, -3.58, -2.68, -4.0, -5.15, -5.69, -5.03, -4.71, -4.4, -3.3, -1.14, -0.0, 2.47, 2.4, 2.53, 0.79, -0.0, -0.0, -0.0, 0.88, 0.87, 1.74, 2.24, 1.0, 0.0, 0.0, -0.81, -1.66, -1.08, -2.32, -5.46, -8.53, -10.43, -11.29, -11.08, -11.83, -8.56, -1.8, 2.68, 2.97, 2.53, 3.22, 3.49, 4.11, 3.9, 3.4, 3.09, 2.54, 1.65, 1.52, 0.96, 0.79, 1.83, 1.6, 1.73, 1.67, 1.68, 2.41, 2.34, 0.75, 0.0, 0.0, 0.0, 0.0, 0.0, -0.71, -1.63, -1.13, 0.0, 0.0, 0.0, 0.0, -1.34, -0.89, 0.0, 0.0, -0.85, -2.76, -4.16, -5.77, -5.77, -5.15, -4.19, -3.22, -2.97, -2.24, -10.21, -10.0, -9.51, -8.79, -7.81, -7.51, -6.6, -6.1, -6.3, -5.81, -5.09, -3.98, -4.47, -4.02, -3.47, -2.68, -5.09, -5.82, -6.11, -5.72, -5.49, -5.98, -4.6, -3.52, -0.0, 1.84, 2.76, 2.0, -0.0, -1.7, -1.72, -1.6, -0.0, -0.0, 1.79, 0.0, 0.0, -0.82, -2.35, -4.42, -6.01, -8.93, -11.87, -14.5, -15.12, -15.12, -13.74, -9.56, -1.26, 3.2, 3.58, 2.6, 2.98, 3.58, 4.19, 4.01, 3.9, 3.4, 3.27, 2.31, 2.31, 1.55, 2.47, 2.6, 3.33, 3.2, 2.54, 2.35, 2.39, 2.41, 2.34, 1.52, 0.0, -1.52, -2.31, -2.31, -1.56, -0.82, -2.2, -2.6, -1.79, -1.34, -1.79, -2.4, -2.6, -1.58, -0.89, -1.26, -1.8, -3.55, -5.49, -6.32, -6.79, -5.77, -4.54, -2.84, -2.4, -2.24, -10.21, -10.42, -9.92, -9.01, -8.72, -7.81, -7.51, -7.01, -6.6, -6.3, -6.04, -5.24, -5.36, -4.92, -4.38, -3.95, -4.47, -5.2, -6.08, -6.01, -4.83, -4.96, -5.69, -5.86, -4.25, -1.14, 0.76, 1.66, 0.99, -1.8, -5.06, -5.59, -4.83, -3.76, -2.24, -1.8, -2.4, -3.6, -6.14, -8.93, -11.52, -15.13, -15.74, -15.12, -14.13, -12.49, -10.28, -2.54, 4.15, 3.58, 3.47, 3.2, 3.6, 4.22, 4.81, 4.01, 3.9, 3.4, 3.27, 2.44, 1.58, 2.4, 3.33, 4.16, 4.03, 3.91, 3.32, 3.7, 4.4, 4.23, 3.91, 1.58, 0.0, -2.72, -4.29, -5.59, -4.25, -2.49, -2.64, -4.02, -3.04, -2.97, -2.97, -3.58, -3.48, -1.98, -1.34, -1.74, -4.01, -5.76, -6.14, -6.32, -6.39, -5.43, -2.68, -0.99, -0.99, -2.21, -10.62, -10.21, -10.42, -9.92, -9.01, -8.3, -7.81, -7.31, -7.09, -7.01, -6.79, -5.57, -4.85, -5.36, -5.36, -5.36, -4.92, -4.92, -5.43, -6.39, -6.01, -4.96, -4.66, -4.8, -4.8, -4.6, -2.26, -0.0, -1.4, -2.54, -5.51, -7.67, -9.67, -9.65, -9.83, -9.11, -8.79, -9.3, -12.26, -15.12, -15.74, -13.49, -10.24, -7.48, -6.57, -5.95, -4.26, 0.87, 3.2, 3.22, 3.58, 3.58, 3.58, 4.19, 4.43, 4.01, 3.33, 3.55, 3.27, 2.44, 1.58, 2.51, 3.9, 4.95, 5.1, 4.0, 3.45, 3.91, 5.76, 5.76, 5.3, 4.01, 2.23, 0.0, -4.22, -5.6, -5.69, -3.4, -1.6, -3.74, -4.4, -4.57, -4.22, -4.54, -4.43, -4.6, -3.95, -4.43, -6.64, -6.42, -5.49, -4.83, -5.37, -3.48, -1.2, 0.0, -1.83, -2.53, -10.71, -10.71, -10.21, -10.42, -9.51, -9.01, -8.3, -7.81, -7.71, -7.51, -7.26, -5.88, -4.66, -4.38, -4.85, -5.36, -5.81, -5.36, -6.2, -7.42, -8.64, -8.93, -7.95, -6.97, -5.98, -5.72, -6.64, -6.52, -6.64, -6.14, -4.92, -5.36, -8.33, -11.66, -13.39, -12.5, -12.3, -11.88, -13.49, -15.12, -14.3, -10.62, -5.69, -3.06, -2.34, -2.99, -2.41, -0.8, 0.89, 1.7, 1.83, 2.53, 3.07, 3.48, 3.35, 3.47, 3.11, 3.33, 2.54, 2.35, 1.58, 2.64, 4.16, 4.95, 5.1, 4.0, 4.12, 3.33, 4.42, 4.96, 4.07, 4.07, 5.06, 3.2, 0.0, -3.9, -4.57, -2.84, -1.0, -3.39, -5.51, -6.51, -6.7, -6.8, -7.63, -8.46, -8.46, -7.42, -7.41, -7.06, -5.69, -5.69, -4.11, -2.24, -1.34, -1.8, -2.64, -3.47, -10.71, -10.71, -10.71, -10.42, -10.0, -9.42, -8.91, -8.1, -8.22, -7.81, -7.51, -6.36, -4.8, -3.22, -2.84, -4.15, -5.29, -6.26, -6.71, -7.47, -9.14, -10.91, -11.54, -12.27, -12.56, -12.21, -12.21, -12.51, -11.13, -8.72, -6.14, -2.97, -3.58, -6.98, -11.62, -12.96, -13.39, -12.21, -10.23, -10.23, -11.56, -10.66, -10.91, -8.58, -6.94, -5.6, -4.65, -3.16, -1.58, 0.0, 0.0, 1.55, 2.4, 2.4, 2.4, 2.6, 2.47, 2.35, 1.65, 1.6, 1.67, 2.47, 3.11, 3.33, 3.33, 3.4, 3.27, 2.35, 1.6, 0.79, 0.85, 1.58, 2.31, 2.44, 0.78, -0.85, -1.79, -1.34, -1.26, -3.16, -6.26, -8.49, -9.36, -10.16, -11.15, -11.18, -10.62, -8.63, -6.4, -6.4, -6.07, -5.43, -3.13, -0.99, -2.68, -3.79, -4.16, -3.33, -10.21, -10.71, -10.71, -10.71, -10.42, -9.92, -9.42, -8.91, -8.51, -8.3, -8.0, -7.4, -5.51, -4.22, -2.4, -2.3, -3.84, -5.2, -6.07, -5.81, -5.77, -6.98, -9.33, -10.8, -11.75, -13.57, -13.57, -13.62, -12.07, -10.04, -8.15, -7.06, -6.14, -7.2, -9.83, -11.99, -12.5, -10.02, -7.76, -9.2, -11.03, -12.51, -15.49, -15.04, -13.2, -11.5, -7.97, -5.52, -4.2, -3.35, -0.82, 0.0, 1.7, 2.47, 2.47, 2.64, 2.51, 1.58, 0.8, 0.81, 0.8, 0.82, 0.81, 1.66, 2.68, 2.6, 1.58, 0.0, -0.78, -1.63, -0.76, 0.0, -0.85, -1.6, -1.58, 0.0, 0.99, 1.98, 0.0, -1.84, -4.46, -7.92, -8.94, -10.73, -12.07, -12.05, -9.81, -5.81, -2.24, -2.4, -3.13, -3.2, -1.83, -1.8, -3.58, -4.43, -4.42, -4.16, -10.21, -10.62, -10.71, -10.71, -10.62, -10.21, -9.71, -9.2, -8.91, -8.51, -8.72, -8.21, -8.87, -8.9, -7.12, -5.21, -5.21, -5.82, -5.82, -5.2, -4.77, -4.77, -4.15, -3.47, -3.13, -4.24, -7.2, -10.23, -11.63, -10.79, -11.56, -13.81, -14.3, -12.75, -10.93, -10.16, -10.22, -8.87, -7.21, -8.22, -11.13, -13.15, -13.15, -9.54, -7.74, -9.26, -11.4, -9.6, -7.35, -5.49, -3.4, 0.0, 0.88, 1.72, 2.51, 2.4, 2.31, 1.67, 0.77, 0.0, 0.0, 0.0, 0.0, 2.0, 2.54, 1.66, 0.0, 0.0, -0.78, -1.6, -0.79, -1.4, -2.31, -2.82, -2.23, 0.0, 0.82, 0.78, 0.0, 0.0, -2.95, -5.86, -6.79, -7.76, -8.67, -8.67, -6.07, -0.89, 2.54, 2.23, -0.0, -1.49, -2.2, -3.58, -3.9, -4.43, -4.95, -5.06, -10.21, -10.21, -10.62, -10.71, -10.71, -10.21, -10.21, -9.71, -9.2, -9.01, -9.01, -9.01, -8.0, -8.87, -10.25, -9.24, -8.99, -8.99, -8.85, -7.97, -7.6, -7.15, -4.4, -1.4, 1.2, 1.79, -2.48, -7.81, -11.17, -12.21, -14.3, -15.65, -13.41, -11.18, -11.62, -10.28, -7.74, -5.34, -3.2, -2.8, -6.51, -9.33, -5.43, 0.95, 2.24, -2.0, -7.42, -10.6, -10.68, -8.0, -4.11, -0.88, 0.82, 2.35, 2.4, 3.27, 2.31, 0.8, 0.8, 0.0, 0.0, -0.82, 0.0, 2.24, 2.97, 1.83, 0.0, 0.0, 0.0, -1.6, -2.4, -2.89, -3.53, -2.82, -0.69, -0.73, -0.84, -1.65, -0.73, -0.69, -1.45, -3.83, -4.4, -4.12, -2.98, -2.11, 0.0, 1.41, 2.53, 2.24, 1.26, -1.49, -4.0, -4.38, -4.38, -4.84, -5.15, -5.15, -10.21, -10.21, -10.21, -10.71, -10.71, -10.71, -10.21, -9.71, -9.3, -9.2, -9.3, -9.48, -8.43, -7.6, -9.24, -9.7, -9.97, -8.21, -7.4, -7.07, -8.94, -8.05, -5.81, -2.0, 0.0, 0.0, -3.39, -4.8, -5.93, -10.04, -10.28, -6.26, -2.4, -1.79, -6.26, -9.39, -7.6, -2.68, 1.34, 1.79, 0.0, -2.68, 0.0, 3.58, 3.58, 3.13, -1.34, -5.81, -7.6, -6.21, -4.02, -0.99, 1.6, 2.35, 3.33, 2.64, 1.73, 0.0, 0.0, -0.8, -1.58, -1.72, 0.0, 2.68, 3.2, 2.6, 1.58, 0.81, -0.84, -3.2, -4.12, -4.31, -3.61, -2.21, -1.43, -1.39, -2.83, -3.45, -4.0, -3.95, -3.06, -2.98, -3.2, -2.79, -0.76, 0.0, 1.36, 1.4, 0.76, 0.0, 0.0, -2.0, -3.13, -3.9, -4.22, -4.84, -4.54, -4.22, -10.21, -10.21, -10.62, -10.62, -10.71, -10.71, -10.62, -10.0, -9.48, -9.48, -9.71, -9.88, -9.1, -7.51, -5.06, -4.84, -4.69, -6.1, -6.8, -6.6, -4.9, -3.44, -2.68, -0.89, 0.0, 0.0, -0.0, 0.6, 2.0, -1.58, -2.53, 1.0, 3.6, 3.47, 0.95, -2.68, -2.6, 0.99, 0.99, 0.85, 1.74, -0.0, 0.0, 0.0, 1.9, 1.0, -0.0, -2.84, -3.72, -4.65, -4.66, -2.97, 0.0, 1.8, 1.6, 0.87, 0.0, -0.79, -2.54, -3.8, -4.12, -2.6, 0.89, 2.54, 2.6, 3.22, 3.8, 2.35, -0.79, -3.55, -4.22, -3.7, -2.83, -2.44, -1.6, -2.31, -3.11, -4.83, -5.7, -5.62, -5.06, -2.47, -3.48, -2.84, -1.55, -0.69, -0.73, -0.71, 0.0, 0.0, -0.73, -1.33, -0.65, -1.6, -3.63, -3.35, -1.0, -1.79, -10.21, -10.62, -10.62, -10.62, -10.62, -10.71, -10.5, -10.4, -10.0, -9.88, -9.48, -9.88, -9.63, -8.38, -6.34, -4.47, -3.84, -4.43, -5.32, -5.65, -4.74, -3.2, -2.44, -1.34, -0.0, 0.53, 1.13, 2.86, 3.2, 2.23, 0.88, 0.85, 2.21, 2.97, 2.68, 2.24, 2.0, 1.9, 1.0, -0.0, -0.87, -3.58, -4.92, -3.84, -2.48, -3.13, -5.75, -5.59, -5.01, -6.23, -6.98, -6.07, -4.02, -3.58, -4.02, -4.66, -3.16, -1.14, -2.47, -3.9, -3.79, -2.23, -0.0, 1.0, 1.34, 1.98, 3.11, 4.01, 2.53, 0.0, -1.6, -1.83, -1.7, -1.6, -2.4, -3.36, -4.07, -5.06, -5.7, -5.95, -4.87, -4.03, -4.56, -5.77, -3.35, -2.51, -3.32, -2.99, -1.4, -0.71, -0.72, -1.41, -0.7, -0.88, -1.6, -0.81, 1.9, 1.79, -10.21, -10.62, -10.62, -10.62, -10.62, -10.4, -10.5, -10.4, -10.4, -10.16, -9.63, -9.63, -9.63, -9.58, -7.86, -6.35, -5.09, -4.46, -5.1, -5.72, -5.72, -4.83, -3.84, -2.44, -0.95, -0.0, 0.51, 1.76, 2.2, 1.73, 1.13, 0.98, 1.4, 1.26, 1.34, 1.34, 1.34, -0.0, -0.0, -1.0, -3.22, -6.51, -9.83, -10.7, -7.4, -4.92, -5.31, -8.22, -9.75, -9.75, -9.11, -8.94, -8.05, -6.26, -4.92, -4.92, -4.92, -2.53, -1.27, 0.0, -2.0, -3.2, -3.2, -3.2, -2.68, -1.79, 0.95, 3.58, 4.02, 3.58, 1.79, 2.12, 1.79, 0.0, -0.88, -2.47, -3.2, -4.83, -5.49, -4.96, -4.83, -5.89, -5.78, -5.69, -5.6, -4.65, -4.26, -3.33, -1.47, -0.69, -0.67, -1.52, -1.55, -1.7, -1.41, 0.0, 1.98, 1.0, -10.21, -10.62, -10.4, -10.4, -10.4, -10.4, -10.4, -10.8, -10.55, -10.16, -10.02, -9.63, -9.38, -9.76, -9.02, -7.9, -6.98, -6.08, -5.72, -5.72, -6.34, -5.69, -5.08, -3.84, -2.49, -0.43, -0.0, 0.57, 1.08, 1.73, 1.11, 0.53, 1.13, -0.0, 0.0, 0.0, 0.0, 0.0, -0.0, -1.58, -3.47, -6.71, -9.77, -10.23, -5.36, 0.0, 0.0, -3.13, -6.61, -9.21, -9.11, -8.05, -4.92, -0.0, 0.0, 0.0, -3.39, -3.47, -0.95, -0.0, -1.0, -3.2, -4.77, -6.71, -7.15, -5.81, -1.26, 2.68, 2.24, 3.58, 5.36, 6.02, 4.57, 2.23, 0.0, 0.0, -0.87, -2.68, -3.35, -3.35, -3.63, -4.95, -4.14, -3.09, -3.11, -5.58, -3.35, -0.87, 0.0, 0.0, -0.76, -2.18, -2.8, -2.11, -1.72, 0.0, 0.0, 0.0, -10.21, -10.4, -10.4, -10.4, -10.4, -10.4, -10.4, -10.8, -10.55, -10.55, -10.3, -9.76, -9.76, -9.76, -9.02, -8.5, -7.93, -7.32, -6.7, -6.34, -6.33, -6.07, -5.69, -5.08, -4.12, -2.17, -0.57, -0.0, 0.51, 1.11, 1.58, 1.61, 0.57, 1.2, 1.79, 0.0, 0.0, -0.0, -0.0, -1.58, -3.04, -3.58, -4.02, -3.82, -1.2, 2.68, 3.13, 2.24, 0.0, -2.68, -4.02, -3.13, 0.0, 2.24, 2.68, 2.24, 0.0, -1.79, -1.79, -0.0, -0.0, 0.0, -1.34, -3.13, -4.92, -4.47, -1.34, 0.0, 1.9, 3.58, 5.09, 5.16, 3.47, 1.26, -0.0, -0.0, -0.0, 0.0, 0.0, -1.34, -1.0, -2.41, -2.47, -2.51, -2.35, -0.81, -0.99, 0.0, 0.99, 0.0, -0.79, -2.88, -2.98, -2.12, -2.12, -2.11, -2.07, -2.07, -10.0, -10.4, -10.4, -10.5, -10.91, -10.91, -10.91, -10.68, -10.55, -10.55, -10.3, -10.3, -9.76, -9.5, -9.3, -9.08, -8.53, -7.93, -7.33, -6.71, -6.31, -6.31, -6.33, -5.06, -4.03, -2.61, -1.2, -0.6, 0.0, 0.63, 1.9, 2.79, 1.9, 2.84, 2.54, 2.0, 2.0, 1.58, -0.0, -0.0, -2.24, -2.0, -1.4, -1.74, -1.58, 1.58, 2.68, 2.24, 2.68, 3.2, 3.58, 3.58, 2.68, 0.0, 0.0, 0.0, 0.0, 1.26, 0.0, 0.0, 1.79, 2.68, 2.8, 2.8, 1.9, 0.0, 0.0, 0.0, 2.24, 4.24, 3.72, 0.85, -0.0, -2.21, -1.13, 0.87, 1.8, 1.6, 0.99, -0.0, -0.0, -1.26, -2.0, -2.88, -3.33, -1.7, 0.0, 0.0, 0.0, -2.51, -2.82, -3.11, -3.72, -3.79, -4.12, -3.64, -3.48, -3.48, -10.0, -10.4, -10.4, -10.8, -10.91, -10.68, -10.68, -10.68, -10.68, -10.3, -10.3, -10.3, -10.13, -9.5, -9.3, -8.5, -8.53, -8.24, -7.61, -6.58, -5.89, -6.06, -5.67, -4.63, -2.83, -2.21, -2.26, -1.05, -0.57, 0.0, 1.34, 3.2, 3.07, 2.68, 2.68, 3.22, 2.53, 1.9, -0.0, 0.0, 0.0, -0.0, -1.9, -2.53, -1.4, -0.0, -0.0, 1.79, 2.24, 2.68, 3.13, 3.13, 2.24, 0.0, 0.0, 0.0, 0.0, 0.0, 1.58, 1.58, 1.9, 1.9, 2.8, 3.13, 3.58, 3.13, 0.0, -1.9, 0.0, 1.58, -0.0, -2.84, -3.16, -3.16, -0.98, 1.8, 2.84, 2.53, 1.98, 1.6, 0.99, 0.95, 0.0, -3.79, -4.11, -4.43, -4.95, -0.81, -2.6, -4.16, -2.51, -2.47, -4.43, -5.69, -5.1, -4.74, -4.09, -4.09, -10.0, -10.4, -10.4, -10.8, -10.68, -10.68, -10.68, -10.68, -10.68, -10.3, -10.3, -10.3, -10.04, -9.86, -9.76, -9.92, -8.5, -8.53, -6.97, -5.67, -5.17, -5.8, -6.31, -6.2, -4.5, -3.61, -2.8, -3.69, -3.11, -1.58, 0.45, 2.91, 3.07, 2.79, 3.14, 2.84, 1.61, 0.57, -0.0, -0.0, -0.0, 0.0, -0.0, -0.0, -0.0, -0.0, -0.0, 1.58, 2.24, 2.24, 2.24, 2.24, 2.24, 0.0, 0.0, 0.0, 0.0, 0.0, 0.0, 0.0, 0.0, 1.9, 2.68, 2.68, 2.97, 2.54, 0.0, -1.74, -1.74, -1.58, -2.24, -2.24, -2.0, -2.0, 0.0, 1.26, 1.34, 0.89, 1.2, 1.8, 0.99, 0.95, 0.0, -2.6, -4.84, -7.07, -8.03, -7.64, -6.32, -5.43, -4.11, -3.33, -5.69, -6.96, -6.39, -5.77, -5.46, -5.46, -10.0, -10.4, -10.4, -10.8, -10.68, -10.68, -11.08, -10.83, -10.83, -10.83, -10.68, -10.3, -10.04, -9.86, -9.86, -8.94, -8.78, -8.78, -8.6, -7.08, -6.21, -5.83, -6.94, -8.12, -7.97, -6.24, -6.32, -4.43, -3.79, -2.15, 0.0, 2.17, 2.91, 2.68, 2.79, 2.23, 2.23, 1.2, 0.57, -0.0, -0.0, 0.6, 1.26, 1.24, 0.57, -0.0, -0.0, 1.9, 1.9, 2.24, 2.24, 2.24, 2.24, 2.24, 1.34, 0.0, 0.0, 0.0, 0.0, 0.0, 0.0, 1.79, 2.68, 2.8, 2.54, 2.0, 0.0, 0.0, 0.0, 0.81, 0.89, 0.77, 0.0, -0.82, -1.65, -2.6, -2.68, -2.6, 0.87, 0.87, -0.0, 1.26, 1.79, 1.34, -2.0, -3.83, -3.79, -3.35, -6.01, -4.46, -5.21, -5.77, -6.39, -8.0, -8.14, -7.44, -6.82, -6.82, -10.4, -10.4, -10.4, -10.55, -10.68, -11.08, -10.83, -10.83, -10.83, -10.83, -10.68, -10.68, -10.41, -10.04, -9.94, -9.59, -9.08, -9.02, -8.94, -9.3, -8.53, -6.97, -7.96, -7.63, -7.27, -6.32, -5.06, -4.94, -3.88, -2.17, 0.0, 1.27, 2.4, 2.15, 2.21, 2.21, 1.61, 1.2, 1.24, 1.24, 0.57, 0.57, 0.71, 0.57, 0.57, -0.0, -0.0, 1.4, 1.9, 1.9, 2.68, 2.68, 2.24, 1.79, 0.0, 0.0, 0.0, 0.0, 0.0, 0.0, 0.0, 0.0, 2.21, 1.4, 1.0, 1.58, -0.0, 0.0, 1.98, 4.01, 4.12, 3.11, 0.82, -0.75, -3.15, -5.59, -5.05, -2.24, -0.0, -0.0, -0.0, -0.0, 2.4, 2.6, 2.21, -0.0, -0.0, -0.95, -1.47, -2.88, -5.69, -6.73, -6.44, -6.13, -7.06, -7.6, -6.94, -6.94, -10.4, -10.4, -10.16, -10.55, -10.68, -11.08, -10.83, -10.83, -10.83, -10.83, -10.68, -10.68, -10.41, -10.41, -10.15, -9.94, -9.42, -9.42, -9.66, -9.37, -7.86, -7.3, -7.32, -7.9, -7.59, -6.69, -5.1, -4.11, -2.0, -1.79, 0.0, 0.89, 1.7, 2.0, 2.15, 1.61, 1.61, 1.0, 1.24, 1.24, 0.99, 0.99, 0.57, 0.57, 0.57, -0.0, -0.0, 1.4, 2.21, 1.9, 1.9, 2.24, 2.24, 1.79, 0.0, 0.0, 0.0, 0.0, 0.0, 0.0, 0.0, 1.26, 1.9, 1.0, 1.26, 1.26, 0.95, 0.0, 1.79, 3.6, 4.11, 2.8, 2.53, 1.79, -4.84, -7.28, -7.28, -2.54, 1.74, -0.0, -0.98, -0.0, -0.0, 0.87, 1.13, -0.0, -1.2, -3.47, -4.71, -3.61, -6.44, -7.27, -5.72, -2.86, -3.04, -4.93, -6.4, -6.4, -10.4, -10.4, -10.4, -10.55, -10.68, -10.68, -10.83, -11.22, -11.22, -11.22, -10.83, -10.41, -10.41, -10.41, -10.15, -10.23, -10.01, -9.72, -9.46, -9.13, -7.93, -6.98, -6.7, -6.97, -7.27, -7.3, -6.35, -4.47, -1.9, -1.34, -0.45, 0.0, 0.8, 1.49, 1.86, 1.9, 1.9, 1.24, 1.24, 0.99, 0.99, 1.24, 1.24, 1.24, 1.24, 1.24, 1.6, 1.6, 2.21, 1.9, 1.9, 1.58, 2.24, 1.79, 0.0, 0.0, 0.0, -0.0, 0.0, -1.34, 0.0, 0.0, 1.79, 1.26, 1.26, 1.26, 1.34, 0.0, 0.0, 0.0, 0.0, 0.0, 3.47, 1.34, -2.68, -5.16, -5.86, -1.79, 1.9, 1.4, -0.0, -0.98, -0.0, -0.87, -0.87, -1.98, -4.38, -6.65, -7.44, -7.59, -7.8, -7.94, -4.74, 0.0, 0.0, -3.22, -5.43, -5.43, -10.4, -10.4, -10.4, -10.16, -10.55, -10.68, -10.83, -11.22, -10.96, -10.96, -10.58, -10.58, -10.41, -10.41, -10.51, -10.23, -10.3, -10.06, -9.46, -9.17, -7.96, -7.33, -6.31, -6.08, -6.67, -7.27, -7.3, -6.04, -3.48, -1.86, -0.6, 0.0, 0.45, 1.2, 1.49, 1.86, 1.58, 1.24, 1.24, 0.99, 1.24, 1.58, 1.9, 1.61, 1.88, 1.61, 1.27, 2.53, 2.53, 2.53, 2.21, 1.9, 2.24, 2.24, 1.79, 0.0, 1.34, 0.0, 0.0, -1.79, -1.34, 0.0, 0.0, 0.0, 1.26, 1.79, 0.0, 0.0, -0.95, -1.26, -1.58, -0.0, 0.95, 0.0, 0.0, -2.68, -3.58, 0.0, 2.68, 2.23, 1.9, -0.0, -0.79, -2.41, -3.48, -4.8, -6.26, -7.55, -7.35, -5.21, -7.02, -5.43, -2.53, 0.0, -0.99, -3.84, -4.46, -4.46, -10.4, -10.4, -10.4, -10.16, -10.55, -10.55, -10.83, -11.22, -10.96, -10.96, -10.96, -10.96, -10.96, -10.79, -10.51, -10.23, -10.3, -10.06, -9.72, -9.17, -8.58, -7.96, -7.19, -6.31, -6.35, -6.67, -7.27, -6.64, -5.35, -3.09, -1.9, -0.6, 0.0, 0.0, 0.95, 1.26, 1.26, 1.26, 0.99, 0.99, 0.99, 1.24, 1.61, 2.21, 2.23, 1.6, 1.33, 1.61, 1.88, 2.21, 2.15, 3.2, 1.9, 2.24, 1.79, 1.79, 1.79, 1.34, 0.0, -2.24, -2.24, -1.34, -1.26, -0.0, 2.0, 1.79, 1.34, 0.0, 0.0, -1.0, -1.2, -1.6, -1.79, -0.89, -0.0, -0.0, 0.0, 0.0, 2.24, 2.54, 2.54, 1.58, -0.65, -2.41, -3.48, -4.8, -5.75, -5.81, -4.92, -2.8, -2.21, -1.79, -1.49, -1.66, -2.2, -3.72, -3.79, -3.79, -10.4, -10.4, -10.4, -10.16, -10.16, -10.55, -10.55, -10.83, -10.96, -10.96, -10.96, -10.96, -10.96, -10.96, -10.51, -10.59, -10.3, -10.3, -10.06, -9.17, -9.19, -8.59, -7.96, -7.59, -6.97, -6.35, -6.35, -6.59, -5.93, -4.65, -2.84, -1.88, -1.26, 0.0, 0.0, 0.63, 0.95, 0.95, 1.26, 0.57, 0.57, 0.99, 1.24, 1.88, 1.61, 1.61, 1.61, 1.88, 2.53, 2.23, 2.79, 2.53, 2.84, 3.2, 2.8, 2.8, 1.9, 2.24, 0.0, 0.0, -2.24, -1.79, 0.0, 1.26, 1.79, 1.34, 1.34, 0.0, -0.0, -1.79, -2.21, -2.84, -2.6, -2.4, -1.34, -0.0, -0.0, 0.0, 1.34, 1.79, 2.0, 1.6, -0.0, -1.49, -2.41, -3.58, -3.6, -3.9, -2.98, -2.79, -3.79, -1.79, -3.07, -4.36, -4.29, -4.29, -3.79, -3.79, -10.4, -10.4, -10.4, -10.16, -10.16, -10.55, -10.55, -10.83, -10.96, -11.34, -10.96, -10.96, -10.96, -10.96, -10.7, -10.23, -10.59, -10.3, -10.06, -9.77, -9.48, -9.19, -8.87, -7.96, -7.33, -6.98, -6.35, -6.28, -5.59, -4.94, -4.07, -3.79, -2.86, -1.61, -0.95, -0.45, 0.0, 0.0, 0.63, 0.63, -0.0, -0.0, -0.0, 1.0, 1.61, 1.88, 2.21, 2.21, 2.53, 2.79, 2.84, 3.09, 3.09, 3.14, 3.22, 2.98, 2.21, 2.24, 1.79, 1.34, 0.0, -0.89, 0.0, 1.34, 0.0, 0.0, 0.0, 0.0, -1.79, -2.68, -3.6, -3.93, -3.16, -2.53, 0.0, 1.34, 1.58, 0.0, 0.0, 0.0, -0.0, 0.95, 0.89, -0.0, -1.88, -3.16, -3.58, -3.6, -2.84, -4.19, -4.46, -4.87, -5.21, -6.44, -6.06, -5.06, -4.74, -4.74, -10.4, -10.4, -10.16, -10.16, -10.16, -10.55, -10.55, -10.3, -10.83, -11.07, -11.07, -10.96, -10.96, -10.96, -10.51, -10.51, -10.01, -10.01, -10.06, -9.77, -9.77, -9.19, -8.87, -8.59, -7.96, -7.61, -6.69, -6.01, -5.29, -4.65, -4.37, -4.37, -3.49, -2.84, -1.9, -1.26, -0.63, 0.0, 0.0, 0.0, -0.0, -0.0, -0.0, 0.63, 0.95, 1.58, 2.21, 2.53, 2.79, 2.79, 3.14, 3.09, 3.43, 3.43, 3.43, 2.84, 2.8, 2.24, 1.34, 1.34, 0.0, 0.0, 0.0, 1.34, 0.0, 0.0, 0.0, 0.0, -1.34, -2.68, -2.98, -3.48, -4.11, -3.58, -1.79, -0.0, 1.0, -0.0, 0.0, 0.0, 0.0, -0.0, 0.45, 0.0, 0.0, -1.9, -3.79, -3.22, -3.48, -3.93, -3.48, -4.57, -6.02, -6.25, -6.7, -6.35, -5.72, -5.72, -10.4, -10.4, -10.16, -10.16, -10.16, -10.16, -10.55, -10.3, -10.83, -10.96, -11.07, -11.07, -10.96, -11.07, -10.7, -10.51, -9.66, -9.66, -9.72, -10.06, -9.77, -9.5, -9.21, -8.87, -8.23, -7.96, -7.32, -6.32, -5.29, -4.65, -4.65, -4.71, -3.83, -3.48, -2.23, -1.9, -1.26, -0.95, 0.0, 0.0, 0.0, -0.0, -0.0, 0.0, 1.34, 1.7, 2.15, 2.79, 2.79, 2.79, 3.14, 3.09, 3.43, 3.48, 3.48, 2.84, 2.84, 3.13, 1.79, 1.34, -0.0, -0.0, 0.0, 0.0, 0.0, 0.0, 0.0, 0.0, 0.0, -1.79, -2.54, -2.53, -3.33, -4.29, -4.38, -0.99, -0.0, -0.0, 0.0, 0.0, 0.0, 0.0, 0.63, 0.89, 1.79, -0.0, -1.4, -3.22, -3.48, -2.53, -1.74, -3.58, -5.31, -6.55, -7.47, -7.28, -7.28, -7.28, -10.0, -10.0, -10.16, -10.16, -10.16, -10.16, -10.55, -10.3, -10.83, -10.96, -11.07, -11.07, -11.07, -11.07, -11.07, -10.51, -10.01, -9.66, -9.13, -9.72, -9.77, -9.8, -9.8, -9.21, -8.59, -8.24, -7.61, -6.92, -5.59, -4.65, -4.65, -4.71, -4.43, -4.11, -3.16, -2.23, -1.61, -1.24, -0.95, -0.63, 0.0, 0.0, 0.0, 0.45, 0.63, 1.26, 2.54, 2.5, 2.5, 2.79, 2.79, 3.14, 3.43, 3.16, 3.48, 3.48, 3.16, 2.79, 2.98, 2.21, 0.87, -0.0, -0.0, -1.58, 0.0, 0.0, -0.0, 0.0, 0.0, -1.79, -3.9, -3.48, -2.35, -3.15, -4.95, -3.47, -0.0, -0.0, -0.85, -1.34, -2.0, -0.45, -0.0, 0.6, 1.26, 2.23, 0.85, -0.0, -0.57, -0.0, -0.0, -2.6, -4.24, -7.15, -7.92, -7.98, -8.14, -8.14, -10.0, -10.0, -10.16, -10.16, -10.16, -10.16, -10.55, -10.3, -10.68, -10.96, -11.34, -11.07, -11.07, -11.07, -11.07, -11.07, -10.01, -10.01, -10.01, -9.46, -9.46, -9.17, -9.19, -9.5, -9.19, -8.58, -7.93, -6.64, -5.59, -4.37, -4.37, -4.37, -4.43, -4.11, -3.49, -2.86, -2.23, -1.61, -1.58, -1.26, -0.63, 0.0, 0.0, 0.89, 1.2, -0.0, 1.0, 1.86, 2.15, 2.5, 2.79, 3.14, 2.84, 3.16, 2.86, 2.86, 2.86, 2.86, 2.86, 1.83, -0.0, -0.87, -1.2, -1.58, 0.0, 0.0, 0.0, -2.68, -2.68, -3.16, -4.57, -4.57, -2.3, -0.79, -2.35, -4.03, -1.79, 0.76, -0.0, -2.0, -2.68, -2.0, -0.0, -0.0, 0.57, 0.99, 1.58, 1.74, 0.85, 1.58, 0.45, -1.2, -5.44, -6.55, -8.05, -8.82, -8.67, -8.67, -10.0, -10.0, -10.4, -10.16, -10.16, -10.16, -10.16, -10.3, -10.68, -10.96, -10.96, -11.07, -11.07, -11.07, -11.07, -11.07, -10.23, -10.01, -10.01, -9.72, -9.46, -9.17, -9.17, -9.19, -9.19, -8.87, -7.93, -6.92, -7.06, -4.94, -4.43, -4.43, -4.43, -4.11, -3.79, -3.48, -2.86, -2.23, -1.88, -1.58, -1.26, -0.63, 0.0, 0.63, 0.6, -0.0, -0.0, 1.24, 1.9, 2.21, 2.53, 2.79, 2.84, 2.84, 2.86, 2.86, 2.84, 2.4, 2.18, 1.19, -0.0, -0.87, -1.2, -0.95, 0.0, 0.0, 0.0, -1.58, -3.6, -3.72, -3.2, -2.97, -3.6, -1.41, -0.8, -3.55, -1.79, 0.85, -0.0, -0.8, -2.24, -2.68, -1.79, -0.63, -0.0, 0.57, 0.99, 0.99, 1.98, 2.23, 2.24, 0.0, -4.41, -5.86, -7.6, -8.49, -8.46, -8.46, -9.88, -9.88, -10.0, -10.16, -10.16, -10.16, -10.16, -10.3, -10.68, -10.58, -10.96, -11.07, -11.07, -11.07, -11.07, -11.07, -10.59, -10.23, -10.01, -9.72, -9.72, -9.17, -9.17, -9.48, -9.19, -8.87, -8.22, -7.51, -6.79, -7.06, -5.01, -5.01, -4.43, -4.37, -3.79, -4.07, -3.48, -2.86, -2.23, -2.21, -1.58, -0.95, -0.45, -0.0, -0.0, -0.0, 0.71, 1.24, 1.9, 2.21, 2.21, 2.53, 2.23, 2.51, 2.23, 2.48, 2.22, 1.73, 1.07, 0.55, -0.0, -1.2, -0.0, 0.0, 0.89, 1.34, 1.79, 1.26, 0.0, -1.58, -1.34, -1.34, -2.97, -3.79, -1.72, -0.99, -0.8, -0.0, 1.34, 0.0, -0.8, -2.54, -2.54, -2.24, -0.89, -0.0, 0.6, 1.26, 2.21, 2.98, 2.97, 2.24, -0.89, -5.64, -6.79, -8.05, -8.05, -8.05, -9.88, -9.88, -9.88, -10.16, -10.16, -10.16, -10.16, -10.3, -10.68, -10.58, -10.96, -11.07, -11.07, -11.07, -11.07, -11.07, -10.8, -10.23, -10.01, -10.01, -9.72, -9.72, -9.17, -9.17, -9.17, -8.56, -8.22, -7.55, -7.44, -6.23, -5.49, -4.94, -4.43, -4.43, -4.11, -3.79, -3.73, -3.48, -3.16, -2.79, -2.5, -1.86, -1.2, -0.89, -0.0, -0.0, 0.57, 1.24, 1.58, 1.9, 2.21, 2.21, 2.23, 2.23, 2.51, 2.23, 2.23, 1.76, 1.08, 0.57, -0.0, -0.0, 0.0, 0.0, 1.26, 1.58, 2.0, 1.79, 0.0, 0.0, -0.0, -1.79, -3.6, -5.82, -4.29, -1.0, -0.0, 0.89, 1.26, 0.76, 0.0, -1.33, -2.53, -2.86, -2.6, -0.89, 0.0, 1.2, 2.54, 3.2, 3.6, 3.47, 0.45, -2.12, -6.36, -7.45, -8.01, -8.01, -9.88, -9.88, -9.88, -9.63, -10.02, -10.16, -10.16, -10.3, -10.3, -10.58, -10.96, -11.07, -11.07, -11.07, -11.44, -10.8, -10.8, -10.23, -10.01, -10.01, -9.72, -9.72, -9.17, -8.87, -9.17, -8.85, -8.5, -7.81, -7.51, -6.57, -5.59, -4.94, -4.43, -4.43, -3.83, -4.11, -4.07, -3.73, -3.48, -3.43, -2.79, -2.15, -1.86, -1.2, -0.89, -0.0, -0.0, 0.57, 1.24, 1.9, 1.61, 1.88, 1.61, 1.84, 1.84, 2.23, 2.23, 1.8, 1.8, 1.16, 0.57, -0.0, -0.0, -0.0, 1.58, -0.0, 1.26, 0.95, -0.0, -0.0, -1.58, -3.13, -3.48, -4.83, -4.83, -1.7, 0.87, 2.95, 2.53, 0.81, 0.0, -0.61, -2.07, -3.16, -2.86, -1.27, 0.0, 1.34, 2.68, 3.47, 4.15, 4.15, 2.97, 0.0, -4.41, -7.28, -8.38, -8.38, -9.88, -9.88, -9.88, -9.63, -9.63, -10.02, -10.16, -10.3, -10.3, -10.58, -10.96, -11.07, -11.07, -11.07, -11.44, -11.16, -10.8, -10.23, -10.01, -10.01, -9.72, -9.72, -9.17, -8.85, -8.85, -8.85, -8.5, -7.81, -7.17, -6.52, -5.65, -5.01, -4.74, -4.45, -4.43, -3.83, -4.11, -4.07, -3.73, -3.43, -3.35, -2.79, -2.15, -1.86, -1.6, -0.89, -0.0, -0.0, 1.26, 1.24, 1.9, 1.61, 1.88, 1.61, 1.84, 1.84, 1.8, 2.23, 1.8, 1.84, 1.2, 0.8, -0.0, 1.0, -0.0, 0.0, 0.0, 0.0, 0.0, 0.0, -1.79, -2.24, -1.8, -1.73, -2.31, -2.4, 0.0, 1.52, 0.82, 0.0, 0.0, 0.0, -0.76, -1.49, -2.23, -2.12, -1.58, 0.0, 1.79, 2.97, 3.9, 4.15, 3.2, 2.24, -0.89, -3.97, -8.67, -8.67, -9.48, -9.48, -9.88, -9.88, -9.63, -10.02, -10.16, -10.3, -10.3, -10.41, -10.96, -10.96, -11.07, -11.07, -11.44, -11.16, -11.16, -10.8, -10.23, -10.01, -10.01, -9.72, -9.46, -9.13, -8.85, -8.53, -8.45, -7.81, -7.17, -6.87, -5.95, -5.65, -5.06, -4.45, -4.45, -4.45, -4.43, -4.11, -4.07, -4.0, -3.43, -3.35, -3.07, -2.98, -1.86, -1.26, -0.89, 0.0, 0.6, 1.26, 1.24, 1.2, 1.2, 1.4, 1.61, 1.84, 1.84, 2.23, 1.8, 1.84, 1.2, 0.57, -0.0, -0.0, -0.0, 0.0, 1.34, 1.26, -0.0, 0.0, 0.0, 0.0, 0.0, 0.0, -1.67, -2.54, -3.4, -2.51, -2.6, -1.74, -0.6, 0.0, 0.0, 0.0, -0.95, -1.79, -1.79, -0.89, 0.0, 2.24, 2.97, 4.0, 3.58, 2.6, 0.89, -1.34, -5.34, -7.47, -9.48, -9.48, -9.88, -9.88, -9.63, -9.63, -10.02, -9.92, -10.3, -10.41, -10.96, -10.96, -11.07, -11.07, -11.44, -11.16, -11.16, -10.8, -10.23, -9.66, -10.01, -9.72, -9.46, -9.13, -8.53, -8.5, -8.45, -7.81, -7.51, -6.87, -6.52, -5.69, -5.08, -5.08, -4.78, -4.75, -4.74, -4.71, -4.65, -4.07, -4.0, -4.0, -3.35, -3.6, -1.9, -1.9, -1.86, -1.34, -0.0, 0.6, 0.99, 1.24, 1.0, 1.2, 1.4, 1.61, 1.84, 1.84, 2.23, 2.23, 1.88, 1.58, 1.58, -0.0, -0.0, 0.0, 1.58, -0.0, -0.0, 0.0, 0.0, 0.0, 0.0, -0.81, -0.85, -2.4, -4.16, -5.69, -5.06, -3.84, -2.6, -2.0, -1.26, -0.95, 0.0, 0.0, -0.95, -1.34, 0.0, 0.0, 2.0, 2.98, 3.58, 1.98, 0.85, -0.0, -2.53, -5.34, -9.48, -9.48, -9.48, -9.88, -9.63, -9.63, -10.02, -9.92, -10.3, -10.41, -10.96, -10.96, -11.34, -11.07, -11.44, -11.16, -11.16, -11.16, -10.59, -10.01, -9.66, -9.72, -9.46, -9.13, -8.53, -8.22, -8.45, -8.08, -7.73, -7.44, -6.87, -6.28, -5.69, -5.41, -5.38, -5.08, -5.06, -5.01, -4.71, -4.65, -4.29, -4.55, -4.27, -3.6, -3.6, -2.5, -2.68, -2.12, -0.89, -0.0, 0.6, 0.57, 0.71, 1.0, 1.2, 1.61, 1.88, 2.23, 2.23, 2.23, 2.21, 2.23, 1.2, 2.24, 0.0, 1.58, 1.26, -0.0, -0.0, -0.89, -0.89, -1.34, -3.13, -2.48, 0.0, 0.0, -1.7, -4.29, -5.77, -4.43, -2.79, -2.53, -1.26, -0.8, 0.0, 0.0, 0.0, 0.0, -1.0, 0.0, 0.0, 1.58, 2.21, 1.98, 0.99, -0.0, -0.85, -2.53, -9.48, -9.48, -9.48, -9.48, -9.63, -9.63, -10.02, -9.92, -10.3, -10.68, -10.58, -10.96, -10.96, -11.07, -11.07, -11.35, -11.16, -11.16, -10.8, -10.59, -10.01, -10.01, -9.46, -9.13, -8.82, -8.19, -8.15, -8.08, -8.0, -7.44, -7.09, -6.87, -6.32, -6.32, -5.71, -5.41, -5.37, -5.06, -5.01, -4.94, -4.65, -4.65, -4.55, -4.27, -3.7, -4.15, -3.07, -2.68, -1.34, -0.0, -0.0, 0.6, 0.57, 0.71, 1.24, 1.2, 1.61, 2.21, 2.53, 2.53, 2.79, 2.5, 2.8, 2.24, 2.24, 0.0, -0.0, 0.0, 0.0, -1.34, -1.34, -1.79, -3.13, -3.2, -1.6, 0.0, 0.0, -2.76, -4.81, -3.48, -2.84, -1.6, -0.79, 0.0, 0.0, 0.0, 0.0, 0.0, 0.0, -0.87, -1.0, 0.0, -0.0, 1.2, -0.0, -0.85, -1.9, -1.9, -9.35, -9.35, -9.48, -9.48, -9.63, -9.63, -10.02, -9.92, -10.3, -10.68, -10.41, -10.96, -10.96, -11.07, -11.07, -11.62, -11.35, -11.16, -11.16, -10.8, -10.01, -9.66, -9.13, -9.13, -9.08, -8.78, -8.15, -8.08, -7.73, -7.44, -7.44, -6.87, -6.92, -6.34, -6.34, -6.32, -6.01, -5.65, -5.35, -5.29, -4.94, -4.65, -4.65, -4.29, -4.0, -2.68, -2.24, -2.24, -1.79, -0.89, -0.0, -0.0, -0.0, 0.57, 0.71, 1.24, 1.61, 1.88, 2.21, 2.53, 3.14, 2.79, 2.4, 1.9, 1.79, 0.0, 0.0, 0.0, 0.0, -1.34, -1.79, -2.24, -3.13, -2.97, -4.24, -3.16, -1.66, -1.98, -3.47, -3.04, -0.95, 0.0, 0.0, 0.0, 0.0, 0.0, 0.0, 0.0, 0.0, -0.81, -0.87, -1.0, -1.34, -1.26, -1.58, -2.24, -2.24, -2.24, -9.35, -9.35, -9.35, -9.48, -9.63, -9.63, -10.02, -9.92, -10.3, -10.68, -10.41, -10.96, -10.96, -11.07, -11.07, -11.62, -11.35, -11.16, -11.16, -10.8, -10.23, -9.66, -9.42, -9.42, -9.08, -8.78, -8.73, -8.65, -8.08, -8.0, -7.44, -7.44, -6.92, -6.64, -6.64, -6.34, -6.32, -5.69, -5.32, -5.01, -5.29, -4.94, -4.65, -4.65, -4.07, -2.79, -2.0, -1.79, -1.34, -0.89, -0.63, -0.0, -0.0, -0.0, 0.57, 0.99, 1.9, 1.9, 2.21, 2.79, 3.14, 3.14, 2.5, 2.21, 0.0, 0.0, 0.0, 0.0, 0.0, -1.34, -1.34, -2.24, -2.68, -3.9, -4.22, -4.22, -2.68, -0.87, -1.0, 0.0, 0.98, 2.04, 1.4, 0.76, 0.0, 0.0, 0.0, 0.0, -0.78, -0.82, -1.66, -1.9, -2.4, -2.24, -2.24, -2.24, -2.24, -2.24, -9.35, -9.35, -9.35, -9.35, -9.63, -9.63, -10.02, -9.92, -10.3, -10.68, -10.41, -10.96, -10.96, -11.07, -11.07, -11.62, -11.35, -11.16, -11.16, -10.8, -10.59, -9.66, -9.42, -9.42, -9.08, -9.37, -9.3, -8.73, -8.65, -8.08, -7.73, -7.51, -7.51, -6.95, -6.95, -6.64, -6.32, -6.28, -5.65, -5.59, -5.29, -4.94, -4.65, -4.65, -4.29, -3.48, -2.79, -2.17, -1.79, -1.34, -0.89, -0.63, -0.0, -0.0, 0.6, 1.26, 1.58, 1.9, 2.5, 2.79, 3.09, 3.35, 3.07, 1.86, 0.0, 0.0, 0.0, 0.0, 0.0, 0.0, -0.0, -1.34, -2.24, -3.47, -3.58, -2.41, -1.66, 0.0, 0.0, 2.35, 4.96, 4.96, 2.83, 1.44, 0.0, 0.0, 0.0, 0.0, -0.83, -0.82, 0.0, -2.68, -3.13, -3.13, -3.13, -3.13, -3.13, -3.13, -9.35, -9.35, -9.35, -9.35, -9.25, -9.63, -10.02, -9.76, -10.3, -10.3, -10.41, -10.96, -10.96, -11.34, -11.07, -11.62, -11.62, -11.35, -11.16, -11.16, -10.59, -10.01, -9.66, -9.66, -9.66, -9.37, -9.02, -8.73, -8.38, -8.08, -8.08, -7.73, -7.51, -7.23, -7.23, -6.95, -6.32, -6.28, -5.98, -5.65, -5.59, -5.29, -4.94, -4.65, -4.65, -4.07, -3.43, -2.68, -2.12, -1.79, -1.34, -0.89, -0.0, -0.0, -0.0, 0.6, 1.26, 1.86, 1.9, 2.53, 2.84, 3.14, 3.07, 2.12, 0.89, 0.0, 0.0, 0.0, 1.79, 1.58, 0.85, -0.0, -1.26, -2.24, -1.79, 0.0, 0.0, 0.0, 0.83, 4.03, 5.76, 4.8, 2.39, 0.69, 0.0, 0.0, 0.0, 0.0, 0.0, 0.0, 0.0, -2.24, -3.13, -3.58, -3.9, -3.47, -3.47, -3.47, -9.35, -9.35, -9.35, -9.35, -9.25, -9.63, -10.02, -9.76, -10.3, -10.3, -10.41, -10.58, -10.96, -11.34, -11.07, -11.24, -11.62, -11.35, -11.16, -11.16, -10.59, -10.01, -9.66, -10.01, -9.66, -9.59, -9.3, -9.3, -8.73, -8.65, -8.08, -8.08, -8.08, -7.55, -7.55, -7.23, -6.92, -6.32, -6.28, -5.98, -5.59, -5.49, -5.29, -4.94, -4.65, -4.29, -4.0, -3.35, -2.5, -2.0, -1.7, -1.34, -0.45, 0.0, 0.0, 0.63, 1.2, 1.26, 1.58, 2.53, 2.84, 2.84, 3.07, 2.6, 1.34, 0.0, 0.0, 0.0, 0.0, 1.0, 1.74, -0.0, -0.0, -0.0, -0.0, -0.0, 0.0, 0.0, 2.6, 4.43, 4.16, 4.07, 2.39, 2.18, 1.47, 0.73, 0.0, 0.0, 0.8, 1.98, 1.0, -0.0, -2.68, -3.13, -3.58, -3.58, -3.58, -3.58, -9.35, -9.35, -9.35, -9.35, -9.63, -9.63, -10.02, -9.76, -10.3, -10.3, -10.41, -10.58, -10.96, -11.34, -11.24, -11.24, -11.62, -11.62, -11.16, -11.16, -10.8, -9.66, -10.01, -10.23, -9.94, -9.59, -9.3, -9.3, -8.73, -8.65, -8.65, -8.08, -8.08, -7.81, -7.55, -7.55, -7.25, -6.92, -6.62, -6.28, -5.65, -5.59, -5.29, -4.94, -4.71, -4.65, -4.07, -3.43, -3.35, -2.68, -2.0, -1.6, -0.89, 0.0, 0.0, 0.0, 0.89, 1.2, 1.58, 1.88, 2.51, 2.84, 2.53, 2.4, 2.24, 1.79, 0.0, 0.0, 0.0, 0.0, 1.34, 1.2, -0.0, -0.0, -0.0, -0.0, 0.0, 1.9, 3.58, 3.48, 3.22, 2.54, 4.2, 4.46, 2.98, 1.49, 2.24, 2.68, 1.74, 2.53, 1.98, -0.0, -1.26, -2.54, -3.13, -3.58, -3.58, -3.58, -9.35, -9.35, -9.35, -9.35, -9.25, -9.63, -10.02, -9.76, -10.3, -10.3, -10.68, -10.58, -10.96, -11.34, -11.24, -11.24, -11.62, -11.62, -11.16, -11.16, -11.16, -9.66, -10.3, -10.51, -9.94, -9.86, -9.5, -9.21, -9.21, -8.65, -8.29, -8.08, -8.08, -7.81, -7.55, -7.55, -7.51, -6.92, -6.87, -6.28, -6.23, -5.65, -5.59, -5.29, -4.94, -4.65, -4.29, -4.0, -3.43, -3.35, -2.5, -1.86, -1.2, -0.63, 0.0, 0.0, 0.0, 0.89, 1.26, 1.9, 1.84, 2.51, 2.23, 2.5, 2.6, 2.0, 1.34, 0.0, 0.0, 0.0, 0.0, 1.26, 0.99, 0.99, -0.0, 1.0, 1.26, 2.24, 2.97, 2.84, 2.3, 2.6, 4.95, 4.95, 2.3, 1.34, 3.22, 1.58, 0.89, 1.34, 1.9, 1.2, -0.0, -2.0, -2.97, -3.47, -3.47, -3.47, -8.96, -8.96, -9.35, -9.35, -9.25, -9.63, -9.63, -10.02, -10.3, -10.3, -10.68, -10.58, -10.96, -11.34, -11.24, -11.24, -11.62, -11.62, -11.35, -11.16, -11.16, -10.01, -9.94, -10.51, -9.94, -9.86, -9.5, -9.21, -9.21, -8.65, -8.55, -8.37, -8.08, -8.08, -7.55, -7.55, -7.51, -6.92, -6.87, -6.87, -6.28, -6.23, -5.65, -5.59, -5.29, -5.21, -4.65, -4.37, -4.0, -3.72, -2.79, -2.15, -1.26, 0.0, 0.0, 0.0, 0.0, 0.0, 0.63, 1.24, 1.88, 1.84, 2.23, 2.21, 2.4, 2.0, 1.34, 1.34, 0.0, 0.0, 0.0, 0.0, 1.26, 1.2, 1.0, 1.0, 1.0, 2.0, 2.24, 2.4, 1.98, 2.41, 3.48, 3.47, 0.96, 3.22, 3.22, 0.95, -0.89, -0.95, 0.0, 0.95, -0.0, -1.26, -2.4, -2.97, -2.97, -2.97, -8.96, -8.96, -9.35, -9.35, -9.1, -9.63, -9.63, -10.02, -10.3, -10.3, -10.68, -10.96, -10.96, -11.34, -11.5, -11.24, -11.24, -11.62, -11.62, -11.16, -11.16, -10.59, -9.94, -10.51, -10.15, -9.86, -9.5, -9.21, -9.21, -8.65, -8.55, -8.37, -8.08, -8.08, -7.55, -7.23, -7.51, -7.17, -7.21, -6.87, -6.52, -6.57, -6.23, -5.65, -5.59, -5.29, -5.21, -4.65, -4.37, -3.64, -3.14, -2.21, -1.58, -0.6, -0.6, 0.0, 0.0, 0.0, 0.89, 0.6, 1.0, 1.61, 1.84, 1.88, 1.9, 1.7, 1.79, 1.79, 0.95, 1.34, 0.0, 0.0, 1.34, 2.24, 1.0, 1.0, 1.0, 1.2, 2.0, 1.34, 1.58, 1.74, 1.98, 0.81, 1.0, 3.74, 3.95, 1.34, -1.6, -2.54, -2.12, 0.0, -0.0, -1.26, -2.4, -2.97, -2.97, -2.97, -8.96, -8.96, -9.35, -9.35, -9.1, -9.63, -9.63, -10.02, -10.3, -10.3, -10.68, -10.96, -10.96, -11.34, -10.96, -10.96, -10.96, -11.07, -11.07, -10.87, -10.59, -10.23, -9.94, -10.51, -10.15, -9.86, -9.5, -9.58, -9.21, -8.65, -8.55, -8.0, -8.0, -7.73, -7.51, -7.51, -7.51, -7.17, -7.44, -6.87, -6.87, -6.52, -6.28, -6.23, -5.65, -5.59, -5.29, -4.94, -4.65, -4.0, -3.43, -2.53, -1.61, -0.99, -0.8, -0.6, -0.63, 0.0, 0.0, 0.63, 0.8, 1.2, 1.84, 1.61, 1.9, 1.7, 2.24, 1.79, 1.34, 1.34, 0.95, -0.0, 0.89, 1.79, 1.79, 0.0, 0.95, 1.0, 1.0, 0.95, 1.34, 1.0, 0.99, 0.0, 0.8, 3.74, 4.47, 2.54, -0.8, -3.04, -2.68, -1.79, 0.0, -1.26, -2.4, -2.97, -2.97, -2.97, -8.96, -8.96, -9.35, -9.35, -9.1, -9.63, -9.63, -10.02, -10.3, -10.68, -10.83, -10.96, -10.96, -10.96, -10.96, -10.41, -10.41, -10.41, -10.51, -10.51, -10.51, -10.01, -9.94, -10.15, -10.41, -9.86, -9.5, -9.58, -9.21, -8.65, -8.55, -8.0, -8.0, -7.51, -7.51, -7.51, -7.17, -7.44, -7.44, -7.09, -6.87, -6.87, -6.87, -6.28, -5.95, -5.65, -5.59, -5.29, -4.71, -4.07, -3.48, -2.84, -1.61, -1.24, -1.24, -1.26, -0.95, -0.89, 0.0, 0.0, 0.6, 1.24, 1.16, 1.16, 1.2, 1.26, 1.34, 0.89, 1.34, 1.79, 1.26, -0.0, -0.0, 0.0, 1.34, 0.89, 0.0, -0.0, -0.0, -0.0, 0.0, 0.0, 0.88, 0.0, 0.0, 3.22, 4.66, 4.02, 1.34, -1.6, -1.9, -1.58, -1.26, -1.58, -2.54, -2.97, -2.97, -2.97, -8.96, -8.96, -8.96, -9.35, -9.1, -9.63, -9.63, -9.76, -10.3, -10.68, -10.83, -10.83, -10.83, -10.41, -10.41, -10.41, -10.41, -10.41, -10.41, -10.51, -10.51, -10.23, -10.01, -9.94, -10.41, -9.86, -9.76, -9.21, -9.21, -8.65, -8.55, -8.37, -8.0, -7.51, -7.51, -7.51, -7.17, -7.44, -7.44, -7.09, -6.87, -6.87, -6.87, -6.62, -6.28, -5.95, -5.65, -5.35, -4.43, -4.11, -3.48, -2.86, -2.21, -1.61, -1.58, -1.58, -1.2, -0.63, 0.0, 0.0, -0.0, 0.57, 1.2, 1.16, 1.2, 0.8, 0.89, 0.89, 1.79, 1.34, 1.26, -0.0, -0.0, -0.0, 1.34, 1.34, 0.0, -2.0, -2.0, -1.26, -1.34, 0.0, 1.98, 1.2, 0.0, 2.21, 3.83, 4.22, 2.86, -0.0, -1.6, -1.58, -1.26, -2.0, -2.54, -2.97, -2.97, -2.97, -8.96, -8.96, -8.96, -9.35, -9.1, -9.63, -10.02, -9.92, -10.3, -10.3, -10.3, -10.3, -10.3, -10.41, -10.41, -10.41, -10.41, -10.41, -10.79, -10.7, -11.07, -10.59, -10.23, -9.94, -9.94, -9.86, -9.76, -9.21, -9.21, -8.65, -8.55, -8.37, -8.0, -7.51, -7.51, -7.51, -7.17, -7.44, -7.44, -7.09, -6.87, -6.87, -6.87, -6.87, -6.28, -6.28, -5.98, -5.06, -5.01, -4.71, -3.49, -3.48, -2.23, -2.21, -2.15, -1.86, -1.26, -1.2, -0.89, 0.0, 0.0, -0.0, 0.71, 0.53, 0.65, 0.57, 0.95, 0.89, 1.34, 1.34, 1.34, 1.26, -0.0, 0.0, 1.34, 1.79, -0.0, -2.0, -3.47, -2.97, -2.54, 0.0, 1.26, 2.0, 0.0, 0.0, 2.21, 3.84, 3.84, 1.49, -0.79, -1.6, -0.8, -2.0, -2.54, -2.97, -2.97, -2.97, -8.96, -8.96, -8.96, -9.35, -9.25, -9.63, -10.02, -10.02, -10.3, -9.76, -10.3, -10.3, -10.3, -10.41, -10.41, -10.41, -10.96, -10.96, -10.96, -11.07, -11.07, -10.8, -10.59, -10.23, -9.94, -9.86, -9.3, -9.21, -9.21, -8.65, -8.29, -8.37, -8.0, -7.51, -7.51, -7.51, -7.17, -7.44, -7.44, -7.09, -7.15, -6.87, -6.87, -6.52, -6.28, -5.95, -5.98, -5.65, -5.01, -4.43, -4.11, -2.86, -2.84, -2.79, -2.5, -2.15, -1.86, -1.6, -1.2, -0.89, 0.0, 0.0, -0.0, 0.54, 0.65, 0.71, 0.6, 0.89, 0.89, 1.34, 1.34, 1.34, 1.34, 1.34, 1.26, 1.9, 1.0, -1.26, -2.97, -3.2, -2.97, -1.79, 0.0, 0.0, 0.0, 0.0, 0.8, 3.16, 3.79, 2.41, -0.0, -0.7, -1.49, -2.54, -2.97, -2.68, -2.68, -2.68, -8.96, -8.96, -8.96, -9.35, -9.63, -9.63, -9.63, -9.63, -9.76, -9.76, -9.76, -10.3, -10.3, -10.41, -10.41, -10.58, -10.96, -10.96, -11.34, -11.07, -11.07, -11.07, -10.8, -10.23, -10.15, -9.59, -9.3, -9.3, -9.21, -8.65, -8.29, -8.37, -8.0, -7.73, -7.51, -7.51, -6.92, -7.44, -7.44, -7.09, -6.87, -6.87, -6.87, -6.52, -6.28, -6.23, -5.65, -5.32, -5.01, -4.43, -4.11, -3.48, -3.43, -3.14, -2.79, -2.5, -2.23, -1.86, -1.6, -0.95, -0.89, 0.0, -0.0, -0.0, -0.0, -0.0, -0.0, -0.0, 0.89, 1.34, 1.34, 1.34, 1.34, 1.79, 1.0, -0.0, -0.0, -0.0, -2.4, -2.97, -2.97, -2.0, -1.79, 0.0, 0.0, 0.0, -0.0, 2.53, 4.19, 3.83, 2.6, -0.0, -1.74, -2.6, -2.97, -2.68, -2.68, -2.68, -8.96, -8.96, -8.96, -9.35, -9.63, -9.63, -9.63, -9.63, -9.76, -9.76, -9.76, -10.3, -10.3, -10.68, -10.41, -10.96, -10.96, -11.5, -11.5, -11.34, -11.07, -11.07, -11.07, -10.59, -10.51, -9.94, -9.59, -9.3, -8.94, -8.65, -8.65, -8.37, -8.0, -8.0, -7.51, -7.51, -7.17, -7.44, -7.44, -7.44, -6.87, -6.87, -6.87, -6.52, -6.28, -6.23, -5.65, -5.59, -5.01, -4.71, -4.37, -3.73, -3.43, -3.09, -2.79, -2.68, -2.15, -1.9, -1.86, -1.26, -0.95, -0.63, 0.0, -0.0, -0.0, -0.0, -0.0, -0.0, 0.0, 0.89, 0.89, 0.0, 1.34, 1.34, -0.0, -0.0, -0.0, -0.0, -0.0, -1.9, -2.4, -2.54, -2.24, -1.26, 0.0, 0.0, -1.34, 1.0, 3.49, 3.83, 3.2, 0.85, -0.0, -0.99, -2.4, -2.24, -2.24, -2.24, -8.96, -8.96, -9.35, -9.35, -9.1, -9.1, -9.48, -9.48, -10.02, -9.76, -9.76, -10.3, -10.3, -10.68, -10.41, -10.96, -11.5, -11.5, -11.34, -11.34, -11.07, -11.07, -10.87, -10.51, -10.51, -9.94, -9.59, -9.37, -9.3, -8.73, -8.65, -8.29, -8.08, -7.73, -7.51, -7.51, -7.51, -7.17, -7.44, -7.44, -6.87, -6.87, -6.87, -6.28, -6.28, -6.23, -5.65, -5.59, -5.01, -4.94, -4.37, -4.07, -4.0, -3.43, -3.35, -2.79, -2.21, -2.15, -1.9, -1.58, -1.26, -0.6, -0.63, 0.0, -0.0, -0.0, -0.0, -0.0, -0.0, 0.0, 0.0, 0.0, 0.0, 1.79, 0.95, -0.0, -0.0, -0.0, -0.0, -1.58, -2.54, -2.68, -2.68, -2.4, -1.58, -1.26, -1.26, 0.0, 1.9, 2.15, 2.53, 0.99, -0.0, -0.0, -0.95, -1.34, -1.34, -1.34, -8.96, -8.96, -9.35, -9.48, -9.1, -9.1, -9.1, -9.63, -10.02, -10.02, -9.92, -10.3, -10.3, -10.68, -10.83, -10.96, -11.5, -11.5, -10.96, -10.96, -11.34, -11.07, -11.07, -10.51, -10.15, -9.94, -9.94, -9.59, -9.02, -9.3, -8.73, -8.65, -8.08, -8.08, -7.51, -7.51, -7.51, -7.51, -7.51, -7.44, -7.44, -6.87, -6.87, -6.28, -6.28, -6.23, -5.65, -5.59, -5.01, -5.29, -4.37, -4.07, -4.07, -3.78, -3.43, -3.14, -2.79, -2.21, -1.9, -1.9, -1.24, -1.26, -1.26, -0.63, 0.0, -0.0, -0.0, -0.0, -0.0, 0.0, 0.0, 0.0, 0.63, 1.58, 1.34, -0.0, -0.0, -0.0, -0.0, -1.26, -2.68, -3.13, -3.13, -2.97, -2.4, -1.58, -1.26, -1.26, 0.0, -0.0, -0.0, -0.0, -0.0, -0.0, -0.89, -0.95, -0.95, -0.95, -8.96, -8.96, -9.35, -9.48, -9.1, -9.1, -9.1, -9.63, -10.02, -10.02, -9.92, -10.3, -10.3, -10.68, -10.83, -10.96, -11.5, -11.5, -10.96, -10.96, -11.34, -11.07, -11.07, -10.51, -10.15, -9.94, -9.94, -9.59, -9.02, -9.3, -8.73, -8.65, -8.08, -8.08, -7.51, -7.51, -7.51, -7.51, -7.51, -7.44, -7.44, -6.87, -6.87, -6.28, -6.28, -6.23, -5.65, -5.59, -5.01, -5.29, -4.37, -4.07, -4.07, -3.78, -3.43, -3.14, -2.79, -2.21, -1.9, -1.9, -1.24, -1.26, -1.26, -0.63, 0.0, -0.0, -0.0, -0.0, -0.0, 0.0, 0.0, 0.0, 0.63, 1.58, 1.34, -0.0, -0.0, -0.0, -0.0, -1.26, -2.68, -3.13, -3.47, -3.47, -2.6, -1.9, -1.9, -1.0, -1.0, 0.0, 0.0, -0.0, -0.0, -0.0, -1.34, -1.26, -1.26, -1.26]}]